GFSNE_925_thetae_000.txt.gz
Theta_e
312 313 316 319 321 323 324 325 325 326 325 325 324 324 322 320 321 321 320 321 320 320 320 319 319 319 320 321 322 322 322 320 316 313 310 307 304 302
311 312 313 315 316 319 321 322 323 323 324 322 323 324 324 322 321 321 321 321 321 321 320 320 318 318 318 319 319 322 320 316 313 310 308 305 303 301
310 309 312 313 314 316 317 319 319 320 321 320 321 322 323 324 323 322 321 320 320 320 320 320 319 318 318 319 319 320 317 312 309 307 306 304 301 300
305 307 310 311 312 313 314 315 316 316 317 318 318 320 321 322 322 320 321 321 319 318 319 320 318 318 318 318 318 318 312 308 307 305 303 301 300 300
304 307 308 308 307 308 310 311 312 313 315 316 317 317 318 320 320 319 317 316 318 321 320 317 315 317 317 317 314 314 307 305 303 302 300 299 298 298
306 303 302 302 303 306 307 308 309 311 312 314 315 315 316 317 318 317 314 309 309 310 310 311 314 315 315 313 310 306 304 302 301 299 298 296 296 296
299 297 298 298 300 304 300 301 305 306 307 310 312 314 316 315 311 313 311 313 309 314 306 308 310 312 312 309 305 303 301 299 298 298 297 295 295 294
296 295 297 297 301 297 295 298 301 303 306 307 307 310 311 313 314 315 314 311 310 309 305 305 305 306 306 305 302 301 299 297 297 296 295 294 294 293
293 292 293 297 296 293 294 297 296 298 301 302 304 305 306 308 312 313 313 313 312 304 302 301 300 300 300 301 299 298 297 295 295 294 294 294 293 293
291 291 294 295 294 294 295 295 295 297 298 300 301 301 302 304 306 307 309 310 302 300 299 298 293 295 293 296 296 295 294 294 293 294 294 293 292 292
290 291 293 294 294 294 294 294 296 297 299 300 301 301 302 303 303 305 305 302 299 293 295 291 289 288 290 291 294 291 291 292 293 293 293 292 292 291
290 291 292 292 292 292 293 294 296 298 298 298 299 300 302 302 302 299 301 303 298 292 291 291 288 288 289 287 289 289 291 292 292 292 292 292 292 291
290 291 290 290 290 291 293 295 296 296 296 294 296 299 301 298 295 295 296 300 297 294 291 292 288 286 286 285 285 287 288 290 290 291 291 291 291 290
290 289 289 289 291 292 293 294 294 294 293 292 293 294 293 292 292 291 293 295 295 295 291 291 287 286 285 284 284 283 284 285 288 288 288 287 287 288
288 289 288 290 290 290 290 292 292 290 291 291 292 292 292 290 288 287 289 288 287 286 288 289 288 286 285 284 282 281 282 282 283 283 282 282 283 284
288 287 287 287 287 287 288 289 290 289 290 291 291 291 290 287 286 286 286 286 284 283 284 285 286 283 281 281 281 280 281 281 281 281 282 282 282 283
286 286 286 285 285 286 287 288 289 289 289 290 290 289 288 286 285 285 285 285 284 284 283 281 281 282 282 282 280 281 280 280 281 281 281 281 282 282
284 285 284 284 284 285 286 287 288 289 289 289 288 288 287 285 284 284 285 285 284 283 282 282 282 281 280 281 281 280 280 280 281 281 281 280 281 283
282 284 283 283 284 284 285 286 286 288 288 288 287 286 286 285 286 284 285 285 284 282 280 280 280 273 273 276 279 281 281 281 281 281 281 281 281 282
282 283 282 282 283 284 284 284 285 287 287 287 286 285 285 285 285 285 285 285 282 280 278 279 279 278 270 273 275 279 281 282 281 279 279 280 281 281
282 282 281 281 282 283 282 283 284 286 287 286 285 285 285 285 285 285 285 284 282 280 276 275 279 280 280 278 276 277 280 281 280 280 279 280 281 282
282 281 281 281 282 281 281 282 283 286 286 285 284 284 284 284 284 284 284 283 281 280 278 279 280 279 278 275 271 273 278 282 283 282 282 282 283 280
281 281 280 280 281 281 280 281 283 285 285 284 284 284 284 284 283 283 282 281 280 279 279 278 278 278 278 277 277 276 278 279 281 282 284 284 284 284

GFSNE_925_thetae_003.txt.gz
Theta_e
306 307 308 307 310 312 313 316 317 319 318 317 318 319 320 321 323 323 322 321 321 321 320 321 321 320 320 322 323 323 323 321 322 322 322 321 317 316
303 302 303 305 308 310 311 312 313 314 315 314 315 316 317 319 320 320 321 322 321 320 320 321 322 320 320 319 321 321 322 321 320 321 322 319 316 313
301 302 303 305 307 306 305 306 308 310 311 311 311 312 314 315 317 319 320 320 320 320 319 319 320 321 320 318 319 320 321 321 319 321 321 318 315 311
300 300 302 304 302 302 301 303 306 306 307 308 309 310 312 313 315 316 318 318 319 319 319 318 317 318 320 319 318 319 319 320 320 320 319 316 314 310
296 298 302 298 300 298 298 303 300 298 300 303 307 308 309 310 313 315 316 317 317 318 317 317 316 316 317 318 317 318 319 320 320 318 315 312 310 308
297 298 295 295 295 296 299 297 295 297 299 300 301 304 306 307 309 311 313 314 314 315 315 315 314 313 314 314 314 317 319 319 317 315 311 308 305 303
290 291 291 291 290 294 298 296 294 296 297 296 299 301 302 303 306 307 309 311 312 312 311 311 309 309 310 311 313 316 317 315 312 308 305 303 301 300
287 288 290 290 290 294 294 294 295 295 295 296 297 299 300 301 302 304 304 305 308 310 308 308 308 306 308 310 312 314 314 309 305 303 301 299 298 297
288 289 289 289 290 293 292 293 293 293 294 295 297 298 299 300 301 301 301 304 306 307 305 305 306 304 305 306 309 310 306 303 301 300 299 298 297 296
288 288 289 289 290 291 291 291 291 291 292 294 297 299 298 299 300 302 302 303 304 304 302 304 301 300 300 302 304 303 300 299 299 298 297 296 295 295
288 289 289 289 289 289 290 290 290 291 292 296 295 295 296 295 297 301 302 302 303 303 298 299 291 290 291 296 301 299 298 297 297 295 294 293 294 295
289 289 289 288 288 289 289 290 291 293 294 294 293 292 292 293 295 295 295 295 297 299 296 294 289 289 290 290 294 295 293 292 292 292 294 295 294 293
289 288 288 288 289 288 289 289 291 291 292 291 291 291 291 292 292 292 291 290 292 294 297 294 289 288 288 286 285 288 290 291 292 293 294 294 293 293
287 287 287 287 286 287 286 286 287 289 290 289 290 290 291 290 290 289 288 288 288 288 292 292 288 287 285 285 285 284 286 288 290 292 293 293 293 293
287 287 285 285 285 284 284 285 286 287 289 289 289 289 290 289 289 287 287 285 285 285 286 288 287 286 285 284 283 282 282 283 287 289 289 290 290 290
288 284 283 283 283 283 283 284 285 285 287 288 288 289 288 288 287 286 285 285 284 283 282 283 285 286 282 282 283 283 282 283 282 284 286 286 285 285
285 282 282 283 282 282 282 283 284 284 285 285 287 288 287 287 287 285 285 285 284 283 282 282 282 282 281 281 282 281 280 280 281 281 281 281 281 282
283 282 281 282 281 281 282 282 283 283 283 284 287 287 287 286 286 285 285 285 284 283 282 282 281 281 280 281 281 280 280 280 280 281 281 281 281 282
282 281 282 281 281 280 281 282 282 281 282 283 286 287 286 285 285 284 285 285 283 282 280 280 278 278 279 279 279 281 281 281 281 280 281 281 281 283
282 281 281 280 280 280 280 281 281 281 282 283 286 285 285 284 285 285 285 284 282 281 279 278 277 275 272 275 276 280 281 281 281 280 280 280 281 281
281 281 280 280 280 279 280 280 280 280 282 283 285 284 284 284 285 285 285 284 282 280 279 276 276 278 279 278 278 277 280 280 281 280 280 280 281 282
280 280 280 280 279 279 280 280 280 280 281 282 284 284 284 284 284 284 283 282 281 280 277 277 278 278 278 274 271 272 278 280 281 281 281 282 282 282
279 279 279 279 279 279 279 279 279 280 281 283 284 283 283 283 283 282 281 280 279 278 277 277 277 277 277 276 274 273 277 279 281 282 282 283 282 284

GFSNE_925_thetae_006.txt.gz
Theta_e
302 299 300 301 302 304 307 308 308 307 307 306 307 308 310 311 312 313 315 317 317 318 320 320 320 320 320 321 322 323 324 325 324 324 323 324 323 323
295 295 298 299 300 304 303 303 303 304 304 303 304 305 305 306 308 310 311 312 313 313 315 318 319 319 319 320 321 321 321 322 323 323 322 322 323 323
292 293 295 297 300 298 300 298 297 300 303 301 297 296 298 302 307 308 309 310 313 314 315 315 317 318 318 318 319 320 321 321 320 322 323 321 322 322
292 294 296 297 294 295 295 293 296 299 295 295 296 296 298 298 301 304 306 307 310 312 313 315 316 317 317 317 317 318 318 319 320 321 322 322 321 322
293 290 289 291 291 290 290 291 295 296 294 294 295 296 296 296 299 301 301 302 306 308 309 311 311 313 315 315 316 316 317 318 318 317 319 322 320 322
289 288 287 288 289 290 290 291 294 294 294 294 295 295 295 296 297 298 299 300 302 304 306 307 310 311 312 312 312 314 315 316 317 317 317 319 320 321
288 287 288 288 289 289 290 291 292 292 292 294 294 293 293 294 295 297 299 300 301 301 302 304 308 309 310 309 308 311 312 312 312 315 315 319 320 319
287 287 287 288 288 289 289 290 290 290 291 291 292 292 292 293 296 297 298 299 300 300 302 304 304 306 306 306 308 309 309 311 312 313 316 318 317 315
287 287 287 288 288 289 289 289 289 290 289 289 290 290 291 293 296 295 296 295 296 298 300 301 302 303 303 304 305 306 307 309 311 314 314 311 308 306
287 287 288 288 288 288 288 289 289 288 288 290 291 291 292 294 293 294 294 295 296 299 301 302 302 302 302 302 303 303 304 307 311 311 306 303 302 301
287 287 288 288 287 288 289 288 287 288 287 288 290 291 291 291 291 292 292 293 294 294 295 299 300 297 294 295 297 301 306 307 305 302 300 299 298 298
287 288 287 287 287 288 286 287 286 285 286 288 288 289 289 289 290 291 291 292 292 292 295 295 292 291 293 289 294 302 302 301 301 300 299 298 297 294
287 286 286 286 288 285 285 285 284 285 286 286 287 288 288 289 289 289 289 290 289 289 289 291 291 290 290 287 287 292 297 297 296 296 295 294 294 294
286 285 286 286 284 284 284 283 284 284 284 284 285 287 287 288 288 288 288 288 286 285 284 284 287 290 287 286 287 286 289 291 292 293 294 294 294 293
285 286 283 283 282 282 282 282 282 282 283 284 285 285 285 286 288 287 287 286 286 284 283 283 286 287 286 286 284 282 284 285 291 292 292 293 294 293
286 285 283 282 281 281 281 280 280 281 282 283 283 283 284 285 287 286 286 285 285 284 282 282 283 284 283 284 285 284 284 285 285 289 290 290 291 292
284 283 282 281 281 280 280 280 280 280 282 282 281 282 283 285 286 285 285 285 284 284 282 282 281 282 282 283 283 283 282 282 283 284 286 283 285 287
281 281 281 281 280 280 280 280 279 280 281 281 281 282 283 285 285 285 285 285 284 283 282 281 281 281 281 282 282 281 281 281 281 282 283 281 281 282
280 281 281 280 280 279 279 279 279 280 280 280 281 282 283 285 285 285 285 285 283 281 280 279 278 278 282 281 280 281 281 280 280 280 281 281 281 281
280 280 279 279 279 279 279 279 279 280 280 280 281 281 284 284 284 285 285 283 282 281 280 278 277 276 278 280 280 280 281 280 281 280 280 281 281 282
279 279 279 279 279 279 278 278 279 279 280 280 280 281 284 284 284 285 285 284 282 281 280 278 275 276 277 278 279 278 280 281 282 281 279 280 281 281
278 278 278 278 278 278 278 278 279 279 279 279 280 283 283 283 283 283 283 282 281 280 277 277 278 278 277 275 273 273 279 280 281 281 281 282 282 281
278 278 278 277 278 278 278 278 278 279 279 279 280 283 282 282 282 281 281 280 279 278 277 276 277 277 276 276 275 275 277 279 281 281 282 282 284 285

GFSNE_925_thetae_009.txt.gz
Theta_e
294 293 293 294 297 298 300 301 301 303 300 297 298 299 302 300 297 297 299 304 307 309 310 311 313 315 317 317 318 319 319 320 323 324 326 325 324 324
292 291 293 294 295 297 295 295 297 296 298 296 296 299 298 296 295 297 297 296 299 304 306 308 310 313 314 315 316 318 319 319 320 321 323 324 325 324
290 291 293 292 290 290 292 292 292 291 296 295 297 297 295 294 295 296 296 296 301 302 302 303 304 309 311 313 316 315 317 318 319 320 322 323 324 324
290 291 290 289 288 288 289 290 290 290 292 296 295 294 293 294 295 295 295 297 298 299 300 304 302 302 306 309 311 313 315 316 317 318 319 320 320 320
289 290 288 288 288 288 289 289 290 290 291 292 293 292 293 293 293 293 294 295 296 298 299 300 303 302 301 303 307 311 313 313 315 316 316 317 318 320
288 288 287 287 287 288 289 290 290 290 291 291 292 291 291 291 292 292 293 293 295 297 299 300 300 300 302 304 307 309 310 311 311 313 315 315 317 316
287 287 287 287 288 288 289 290 290 290 290 290 291 291 291 291 291 291 292 292 295 296 297 298 300 301 303 301 304 306 307 307 307 309 312 314 316 315
287 286 286 287 287 288 288 289 289 289 289 290 290 291 290 290 291 291 292 293 295 294 295 295 295 298 300 301 302 303 305 305 306 307 309 310 312 313
286 286 286 287 287 288 288 288 289 288 287 287 288 289 288 289 290 291 291 292 293 293 293 294 295 298 299 300 302 302 303 303 303 305 307 309 310 312
285 286 286 287 288 287 287 288 287 286 286 286 286 286 287 288 289 290 290 291 291 291 292 293 293 294 298 301 302 302 301 301 301 303 304 307 310 312
285 286 287 287 286 287 288 286 285 285 284 285 285 286 286 287 288 289 290 291 290 292 291 291 292 295 297 297 299 298 297 299 300 303 305 309 309 312
286 286 286 285 286 287 285 285 285 284 285 285 284 283 284 285 287 287 289 289 290 290 290 290 291 291 295 292 293 296 299 305 306 306 305 303 302 301
286 285 285 285 286 285 284 283 283 284 283 282 282 283 284 284 286 286 287 288 288 289 288 288 288 288 290 292 291 293 294 301 302 301 300 297 297 299
285 285 285 286 284 283 282 282 283 282 281 281 282 283 284 284 283 284 284 286 287 287 287 285 284 286 288 291 291 288 290 292 296 297 296 295 295 294
285 285 283 282 283 282 281 281 281 280 280 281 282 283 283 282 282 283 284 286 286 286 285 283 282 283 286 290 289 287 287 288 292 292 294 293 293 293
284 282 281 281 282 281 280 280 280 280 280 281 281 282 281 282 282 283 286 285 286 286 284 282 282 282 286 288 288 288 286 289 288 290 291 291 292 292
282 281 280 281 280 280 280 280 280 280 280 280 280 281 281 282 282 283 285 286 286 286 284 283 282 283 283 286 286 285 286 285 285 287 287 285 288 291
281 280 280 280 280 279 279 279 279 279 279 279 280 281 281 282 282 284 285 286 285 284 283 282 282 284 284 283 283 283 283 283 284 286 286 284 283 286
279 279 279 279 279 279 279 279 279 279 279 280 280 281 281 281 283 285 285 285 284 282 281 279 279 280 284 284 282 281 283 282 283 283 284 284 284 282
279 279 279 279 279 278 278 279 279 279 279 280 280 280 281 282 284 285 285 284 283 282 281 279 279 278 282 283 283 281 281 282 283 282 282 281 282 282
279 278 278 278 278 278 278 278 278 278 279 279 280 280 281 283 284 284 284 285 283 282 281 279 276 277 277 278 282 281 281 281 281 282 281 282 283 283
278 278 278 277 277 277 277 278 278 278 278 279 279 280 282 282 282 283 282 282 281 281 279 277 277 278 279 281 281 280 281 281 281 281 282 283 285 285
277 277 277 277 277 277 277 277 278 278 278 279 279 280 282 282 281 280 280 280 280 279 279 280 279 279 279 280 281 281 281 282 282 283 283 284 285 286

GFSNE_925_thetae_012.txt.gz
Theta_e
291 293 292 293 294 295 295 295 297 299 299 297 296 293 293 293 295 299 297 295 295 297 297 297 300 304 307 307 309 311 314 315 316 318 319 322 321 319
290 291 292 292 293 292 291 290 292 294 295 293 293 292 292 295 296 295 294 294 295 297 295 297 300 300 302 302 305 309 311 312 315 318 319 320 322 321
290 290 290 291 291 290 289 290 290 290 294 292 292 292 292 292 292 292 293 294 294 294 295 298 297 299 300 304 303 305 308 310 313 315 318 319 321 322
289 289 289 289 289 289 289 289 290 290 291 294 291 291 291 291 292 292 292 292 292 292 293 294 296 298 300 301 304 301 303 304 308 312 315 316 318 320
289 289 288 288 288 288 288 289 290 290 290 291 291 291 291 291 291 291 291 291 292 293 293 293 296 298 299 301 300 301 302 305 306 308 311 313 315 316
288 288 288 288 288 288 288 289 289 289 289 290 291 291 291 290 290 291 291 291 292 292 292 294 295 297 297 299 300 301 304 302 306 309 310 310 312 313
288 287 287 287 287 287 288 289 289 289 289 290 291 290 290 290 290 290 290 290 290 291 293 294 295 295 296 295 296 298 300 301 304 306 307 308 308 310
287 287 286 286 287 287 288 288 288 289 289 290 290 290 289 288 288 288 289 291 291 290 292 293 292 293 294 295 295 298 299 301 303 305 304 305 306 307
286 286 286 286 287 287 287 287 288 288 288 287 288 287 287 287 287 288 289 289 291 290 291 292 292 293 293 294 295 295 297 300 302 304 304 303 303 304
286 286 286 286 287 286 287 287 288 287 286 285 285 286 286 287 286 286 287 288 289 290 291 293 291 292 292 292 293 296 299 301 301 301 301 302 302 303
285 286 286 286 286 286 288 288 286 285 284 284 285 285 284 284 285 286 287 290 290 291 289 290 291 291 292 290 292 296 296 295 296 297 299 301 302 304
285 286 285 285 286 287 286 286 285 284 284 284 284 283 283 284 284 285 286 288 288 289 288 290 289 290 291 293 292 292 293 293 300 304 304 303 305 306
286 286 285 285 285 284 284 284 284 283 283 283 282 282 283 283 284 284 284 284 285 287 286 288 288 289 289 290 290 291 291 293 298 302 302 304 305 306
285 285 285 284 283 282 283 283 282 282 282 282 282 283 283 283 283 283 283 283 284 285 285 287 287 287 288 288 289 290 291 292 296 297 298 298 299 299
284 285 284 282 281 282 282 281 281 281 281 282 282 282 282 282 282 283 283 283 284 285 286 287 285 285 285 286 288 291 290 290 292 293 293 294 295 296
285 283 282 281 281 281 281 281 281 281 281 282 282 281 281 282 282 283 284 284 285 287 287 284 283 283 285 285 288 291 289 290 289 291 291 291 292 292
283 281 281 281 281 280 280 280 280 280 281 281 281 281 281 282 283 283 283 285 287 287 285 284 283 283 285 286 289 289 289 287 288 289 290 289 290 291
281 281 280 280 280 280 280 280 280 280 280 280 280 281 282 282 282 283 285 286 286 284 283 282 282 285 286 284 284 286 286 286 287 289 290 289 288 290
280 280 280 280 280 280 279 279 280 279 279 279 280 281 281 281 283 285 286 285 285 284 282 281 281 282 287 285 284 283 285 285 286 286 287 287 286 288
279 280 279 279 279 279 279 279 279 279 279 279 280 280 281 281 284 285 285 286 285 284 283 281 280 279 283 284 283 282 284 285 285 284 284 284 284 286
279 279 279 279 278 278 278 278 278 278 279 279 279 280 281 283 284 283 283 284 284 283 282 281 279 278 278 281 283 283 282 283 284 284 285 285 284 284
278 278 278 278 278 278 278 278 278 278 278 279 280 280 282 283 283 282 281 282 282 282 282 281 281 282 283 284 283 283 283 283 284 284 284 285 285 285
278 278 278 278 278 278 278 278 278 278 278 279 280 281 282 282 282 281 281 282 283 284 283 284 283 282 283 284 284 283 283 284 284 285 285 286 286 285

GFSNE_925_thetae_015.txt.gz
Theta_e
291 292 292 292 292 293 293 295 294 293 293 292 292 292 293 291 293 292 294 292 293 294 294 295 296 298 296 297 300 303 302 303 305 307 312 314 315 317
290 291 291 291 291 292 292 292 292 292 292 292 291 291 291 293 292 292 293 292 292 293 293 293 294 294 295 296 298 299 299 302 306 306 308 311 314 316
290 290 290 290 290 290 290 290 291 291 291 291 291 291 291 291 291 291 291 292 292 292 292 292 292 293 294 295 296 297 299 301 303 304 305 309 313 315
289 289 290 290 289 290 289 289 289 289 290 291 290 290 290 290 291 291 291 290 290 291 291 291 292 294 294 294 295 299 300 300 303 302 302 305 308 313
288 289 289 289 289 289 289 288 288 289 290 290 290 290 290 290 290 290 289 289 289 290 291 290 290 292 293 295 296 297 299 299 301 300 305 307 308 311
288 288 288 288 288 288 288 288 289 289 289 290 289 290 290 290 290 289 288 288 288 288 289 289 290 291 293 294 295 293 295 296 297 299 303 302 306 310
287 288 288 287 287 287 288 288 288 289 289 289 289 289 289 288 288 287 287 287 288 288 288 289 290 291 291 292 292 293 295 296 296 298 302 303 305 308
287 287 287 287 287 287 287 287 288 288 288 288 289 289 287 287 286 286 287 288 287 287 288 288 289 290 291 292 293 294 294 295 296 297 298 301 303 305
286 286 287 287 287 287 287 287 287 287 288 287 287 286 285 285 286 286 287 286 286 286 287 288 289 290 292 291 291 292 293 294 295 297 299 301 302 303
286 286 286 286 287 287 287 287 287 286 286 286 285 284 285 285 286 285 285 286 286 287 287 289 288 289 289 290 289 291 291 293 296 297 299 300 303 303
286 286 286 286 286 287 287 286 285 284 285 285 284 284 284 284 284 284 285 285 286 286 285 286 287 288 287 289 289 291 290 291 293 294 294 296 298 300
286 286 286 285 286 287 285 284 284 284 284 284 283 283 282 283 283 284 284 285 285 284 284 285 285 286 288 288 289 288 288 290 291 291 294 297 300 300
286 285 285 285 286 285 284 283 283 284 283 282 282 282 282 283 283 283 283 283 284 284 284 284 285 286 287 287 287 287 287 290 290 293 303 305 304 301
285 285 285 286 284 283 283 282 283 283 281 282 282 282 282 282 282 282 282 282 283 283 284 284 285 285 287 287 286 286 287 290 290 292 297 301 303 303
284 284 285 283 282 282 281 282 281 281 281 282 282 282 282 281 281 282 282 283 283 284 285 285 286 286 285 285 285 285 287 290 291 291 293 293 296 298
284 284 282 281 281 281 281 281 281 281 281 281 281 281 281 281 281 282 283 283 284 284 287 285 284 283 284 285 285 285 288 289 289 290 291 292 293 294
283 282 281 281 280 280 280 280 280 280 281 280 280 280 280 281 281 281 283 284 285 285 284 283 282 283 284 285 287 288 289 288 289 290 291 291 290 292
282 281 280 280 280 280 280 280 280 280 280 279 279 280 280 281 281 282 284 285 285 284 283 281 281 282 285 285 285 287 287 288 289 290 291 291 291 292
280 280 280 280 280 279 279 279 279 279 279 279 279 280 280 281 282 283 284 285 285 285 283 281 280 281 286 285 283 284 286 287 287 287 288 289 291 291
280 280 279 279 279 279 279 279 279 279 279 279 279 279 280 281 282 283 283 283 284 284 283 282 279 280 281 283 284 283 285 286 286 286 286 287 290 291
279 279 279 279 279 279 279 279 278 278 279 279 279 280 281 282 283 283 282 282 283 283 283 282 281 281 282 283 283 284 285 285 286 286 286 286 286 289
279 278 278 278 278 278 278 278 278 278 278 279 279 280 281 282 283 283 282 282 283 284 284 284 283 284 284 283 283 283 285 285 285 286 286 286 286 285
278 278 278 278 278 278 278 278 278 278 279 279 280 281 282 282 282 283 282 283 284 285 284 285 283 284 284 284 283 284 284 286 286 286 286 286 285 287

GFSNE_925_thetae_018.txt.gz
Theta_e
289 290 290 290 290 291 291 291 291 291 291 290 290 290 290 289 290 292 291 291 291 291 292 293 294 294 294 295 295 295 295 296 297 300 302 302 304 309
289 288 289 289 290 290 290 290 290 290 289 289 289 289 288 289 290 289 290 290 290 291 291 291 291 291 292 293 294 293 294 296 296 298 299 301 303 307
287 288 288 288 289 289 289 289 289 289 289 288 288 288 289 289 288 289 289 290 290 290 290 290 290 290 291 292 293 294 295 295 296 297 299 300 302 306
287 287 287 288 288 288 288 288 288 287 287 287 288 289 288 288 288 289 289 289 290 288 288 288 288 289 291 290 291 291 292 294 295 297 298 300 302 304
286 287 287 287 287 288 287 287 287 287 288 288 288 288 288 288 288 288 288 287 287 286 286 287 287 288 289 289 291 292 292 294 296 296 295 299 299 299
286 286 286 287 287 287 287 287 288 288 288 287 288 288 288 288 288 287 286 285 285 285 286 286 287 287 288 288 289 290 291 292 293 294 295 297 298 300
285 286 286 287 287 287 287 288 287 287 288 288 288 288 287 286 286 285 284 284 285 285 286 285 285 286 286 287 288 289 291 292 294 295 296 296 297 298
285 286 286 286 286 286 286 286 287 288 287 287 287 286 285 285 285 284 284 284 286 285 284 284 285 286 287 287 289 290 293 292 291 292 294 295 295 297
285 285 285 285 285 285 286 287 287 287 286 285 284 284 285 285 284 285 285 285 284 284 284 285 285 286 287 286 287 288 290 291 291 292 294 294 295 295
285 285 285 285 285 286 286 287 287 285 284 284 284 284 285 284 284 284 284 284 284 284 284 285 285 284 284 285 286 286 287 289 291 291 292 294 297 298
285 285 285 285 285 286 287 286 285 284 283 283 285 284 283 282 283 283 283 283 283 283 283 283 284 283 283 284 285 286 289 289 289 289 291 292 294 296
285 285 285 285 285 286 286 284 284 282 283 284 282 281 281 281 282 282 282 283 283 282 282 282 283 283 284 285 286 286 287 287 287 289 290 292 293 294
285 285 284 284 286 285 284 283 282 284 283 280 280 281 281 282 281 281 281 281 282 282 282 283 283 284 284 285 285 286 285 285 285 286 288 290 293 295
284 284 283 285 283 283 282 282 282 282 280 280 281 281 281 280 280 280 280 281 281 282 282 283 283 284 284 285 285 284 284 285 287 288 290 293 304 300
283 284 285 283 282 281 280 281 281 279 280 280 281 280 280 280 280 280 281 281 282 282 283 284 284 284 283 282 283 284 286 286 288 289 290 293 295 300
284 283 282 280 280 280 279 279 279 279 280 280 280 280 279 280 280 281 281 281 283 285 284 283 281 282 283 284 284 285 285 288 289 290 291 291 294 296
283 281 280 279 279 279 279 279 279 279 280 279 279 279 279 280 280 280 282 283 284 285 284 283 281 281 282 283 285 286 287 288 289 290 291 292 291 294
281 279 279 279 279 279 279 279 279 279 279 279 279 279 279 280 280 282 282 283 283 284 283 282 280 280 283 284 285 285 287 287 288 290 291 292 291 292
279 279 279 279 279 278 279 279 279 279 279 278 279 279 279 279 280 281 282 282 282 283 283 282 280 280 283 283 283 286 286 287 289 290 291 292 292 292
279 279 279 278 278 278 278 279 279 278 278 279 279 278 279 280 281 282 283 282 282 283 283 282 281 281 280 281 282 286 287 286 288 289 290 291 292 293
278 278 278 278 278 278 278 278 278 278 279 278 278 279 280 280 281 282 282 283 283 282 283 283 283 285 283 284 285 285 285 287 287 286 288 289 291 291
277 277 278 278 278 278 278 277 277 278 278 278 279 279 280 281 281 281 282 283 283 284 284 283 284 283 283 283 284 285 285 286 287 288 289 287 287 289
277 277 277 277 277 277 277 277 277 277 278 279 279 280 281 282 281 281 283 283 283 285 284 284 284 283 283 284 284 285 286 286 286 286 287 289 289 290

GFSNE_925_thetae_021.txt.gz
Theta_e
287 288 287 287 288 288 288 289 289 289 288 289 288 288 288 287 287 288 289 289 288 289 290 291 291 292 293 292 292 293 294 294 295 296 296 296 298 299
287 286 286 286 287 287 288 288 288 288 288 288 288 287 287 287 288 288 288 288 288 289 289 290 291 292 291 292 291 292 291 293 294 294 296 297 299 300
286 286 286 286 286 287 287 287 288 288 287 287 287 287 287 288 287 287 288 287 288 288 289 290 289 289 289 288 289 290 291 292 293 293 293 295 297 298
286 286 285 286 286 286 286 287 287 287 286 287 287 287 288 287 287 287 287 288 288 288 287 287 287 287 287 288 288 289 290 290 291 292 293 293 295 298
286 286 285 285 285 286 286 286 287 287 287 288 288 287 287 287 287 287 286 286 286 285 285 285 285 286 287 288 288 287 288 290 290 291 292 294 296 297
286 285 285 285 285 286 286 287 287 286 286 286 287 288 287 286 285 284 284 284 285 284 284 284 285 286 285 285 286 287 287 288 289 290 291 293 294 295
285 285 285 285 285 286 286 286 286 286 287 288 288 287 285 284 283 283 284 285 284 284 284 285 284 283 283 284 285 286 287 288 290 291 292 293 294 295
285 285 285 285 285 285 285 286 286 287 287 287 286 285 284 283 283 284 284 284 285 284 284 283 283 283 283 284 284 286 287 287 288 290 292 292 293 293
285 285 285 285 285 285 285 286 286 287 287 285 284 284 283 283 284 285 283 283 283 283 283 283 283 283 283 283 284 285 286 287 288 289 289 290 291 292
285 285 285 285 285 285 285 286 286 285 284 284 283 283 284 284 283 283 283 283 283 282 282 282 282 282 282 283 283 284 285 287 288 289 290 291 292 293
285 285 285 285 284 284 285 286 284 283 282 283 284 283 282 282 282 282 282 282 282 282 281 281 282 282 282 282 282 284 285 287 288 288 289 289 289 290
284 284 284 284 283 285 286 284 282 282 283 283 280 280 280 280 281 281 281 281 281 281 281 281 281 282 283 283 284 284 285 285 286 288 288 288 289 290
284 284 283 283 286 284 283 281 281 283 282 279 279 280 280 280 280 280 280 280 280 281 281 282 282 282 282 283 283 284 285 285 285 285 285 287 289 291
284 283 283 285 282 281 281 281 282 281 279 279 280 280 280 280 280 279 279 280 280 281 281 282 283 283 283 283 283 284 284 284 285 286 286 288 289 291
283 284 283 281 280 280 280 280 280 279 279 280 280 280 280 279 279 279 280 280 281 282 284 284 284 282 281 281 283 283 285 286 286 288 290 290 294 300
283 281 280 279 279 279 279 279 279 279 280 280 279 279 279 279 279 280 280 281 282 282 283 283 283 281 280 280 282 283 285 286 288 290 290 291 295 297
282 279 279 279 278 278 278 279 279 279 279 279 279 279 279 279 279 279 280 281 282 282 282 283 282 281 281 280 281 285 286 287 288 290 291 292 292 295
280 278 278 278 278 278 278 278 279 279 279 278 278 279 279 279 279 280 280 281 282 282 282 283 282 281 282 284 284 286 287 287 290 291 292 292 292 293
278 278 278 278 278 278 278 278 278 278 278 278 278 279 278 279 280 280 281 282 283 283 283 283 282 281 281 283 283 287 286 287 290 291 291 292 292 292
278 278 277 277 278 278 278 278 278 277 277 278 279 278 278 279 280 281 281 282 284 284 283 283 283 283 281 282 280 285 288 288 287 290 291 291 291 292
277 277 277 277 277 277 277 277 277 277 278 277 278 278 279 279 280 281 281 283 284 283 283 283 282 284 284 285 285 286 287 289 289 289 290 291 292 292
276 277 277 277 277 277 277 277 277 277 277 277 278 278 279 280 281 281 281 282 283 283 283 283 284 285 284 285 286 286 286 287 289 290 290 290 289 292
276 277 276 276 276 276 276 276 276 276 277 277 278 279 280 281 283 282 281 283 283 283 284 283 284 284 284 284 286 285 285 286 288 289 289 290 291 291

GFSNE_925_thetae_027.txt.gz
Theta_e
286 286 286 286 285 285 285 285 285 285 285 286 286 286 286 286 286 286 286 286 287 288 289 289 289 290 290 290 290 292 292 293 294 295 295 296 296 297
286 286 286 286 285 285 284 284 284 285 285 285 285 285 285 286 286 286 286 287 287 287 287 288 287 288 288 288 289 290 290 291 293 293 293 294 294 295
286 286 286 285 285 285 284 284 284 284 284 285 285 285 286 285 285 285 285 286 286 287 286 285 286 286 286 287 288 289 289 290 291 291 291 292 292 293
286 286 286 285 285 285 284 284 284 284 284 285 285 285 285 285 285 285 286 286 284 284 283 284 285 286 286 287 287 287 288 288 289 289 289 290 291 292
286 286 285 285 285 284 284 284 284 285 285 285 285 285 285 285 286 286 284 283 283 283 283 283 284 285 286 285 286 287 287 288 288 289 290 290 290 290
286 285 285 285 284 285 285 285 286 285 285 285 285 286 285 285 284 283 282 282 282 283 283 284 283 283 284 284 284 285 285 285 286 286 287 287 288 289
285 285 284 284 285 285 285 285 285 285 285 286 285 285 283 283 282 282 282 283 283 283 282 282 282 282 282 282 282 283 283 284 285 286 286 287 288 289
284 284 284 284 284 284 284 284 285 285 285 286 283 283 282 281 282 282 283 282 282 282 282 282 282 282 281 281 282 283 284 285 285 286 287 288 289 289
284 284 284 283 284 284 284 284 285 285 284 283 282 281 281 282 283 282 282 282 282 282 282 282 281 281 281 281 281 282 284 284 285 286 286 287 288 288
284 284 283 284 284 284 284 285 283 282 282 281 282 282 283 283 282 282 282 282 282 281 280 281 280 280 280 280 281 282 283 284 285 286 286 287 288 289
284 284 284 284 283 284 285 283 282 281 280 282 283 282 281 281 281 282 281 281 280 280 280 280 280 280 281 281 281 282 283 284 285 285 286 287 288 288
285 284 283 283 284 285 283 282 280 280 282 282 279 279 279 279 281 280 280 280 280 280 280 280 280 281 282 282 282 282 282 283 283 284 285 287 288 288
283 283 283 283 284 282 282 281 281 283 281 278 279 279 280 280 280 280 279 280 280 280 280 281 281 281 281 282 283 283 283 282 282 282 283 285 286 287
284 283 282 283 282 281 280 281 282 281 278 279 279 280 279 279 279 279 279 279 279 280 280 280 280 281 282 282 282 282 282 282 282 282 283 285 286 287
283 283 282 281 280 279 279 280 280 278 278 279 279 279 278 278 278 279 279 279 279 280 280 281 281 282 282 283 282 282 283 283 283 284 287 289 289 289
282 281 279 278 278 278 278 278 278 278 279 279 278 278 278 278 278 279 279 279 280 280 281 282 283 283 283 282 282 281 283 283 286 288 290 290 291 290
281 279 277 277 277 277 277 277 278 278 278 277 277 277 277 277 278 279 279 280 280 281 282 283 283 283 283 283 282 284 285 288 290 290 290 291 291 291
279 277 277 277 277 277 277 277 277 277 277 277 277 277 277 278 278 279 279 279 280 281 282 283 283 283 284 285 285 285 288 290 290 290 291 291 291 291
277 277 276 276 276 276 277 277 277 276 276 276 276 276 277 277 278 278 279 280 281 282 283 283 283 282 284 286 285 289 287 290 290 291 290 291 291 291
276 276 276 276 276 276 276 276 276 276 276 276 277 276 276 277 278 278 279 281 283 284 283 283 283 283 285 284 284 285 289 289 290 291 291 291 291 291
276 275 275 275 276 276 276 275 275 275 276 276 275 276 277 277 278 279 280 282 284 282 282 283 283 285 286 285 286 288 289 289 289 289 290 291 291 291
275 275 275 275 275 275 275 275 275 275 275 275 276 276 277 277 278 279 280 283 283 282 282 283 284 285 284 284 287 287 288 288 289 290 289 289 290 290
275 274 274 274 274 275 275 275 275 275 275 275 276 276 277 278 279 280 281 283 283 283 283 282 284 284 285 284 286 286 287 287 288 289 289 290 290 290

GFSNE_925_thetae_030.txt.gz
Theta_e
286 286 286 286 286 285 285 284 284 284 284 284 284 284 285 285 285 285 285 286 286 287 287 288 288 289 290 289 289 289 290 291 292 292 293 295 296 297
286 286 286 286 286 285 285 284 284 283 284 284 284 284 284 284 285 285 285 285 285 286 287 288 288 288 288 287 287 288 289 289 291 291 292 293 294 296
286 286 286 286 285 285 285 284 284 284 283 284 284 284 284 284 284 284 284 285 285 285 286 286 286 286 286 287 288 288 289 289 290 290 291 292 292 294
286 286 285 285 285 284 284 284 284 284 283 284 284 285 284 284 284 285 285 285 285 284 283 284 285 285 285 286 287 287 287 288 288 288 289 290 290 291
286 285 285 284 284 284 284 284 284 284 284 285 284 284 284 285 285 284 283 282 282 282 282 283 283 284 285 286 286 286 286 287 288 288 288 289 290 291
285 285 284 283 283 284 284 284 285 284 284 284 284 285 285 284 283 282 281 281 282 282 282 283 283 283 283 283 284 284 284 285 285 286 287 287 288 288
285 284 284 284 284 285 285 285 284 284 285 285 284 283 283 282 281 281 281 282 283 282 282 282 282 281 281 282 282 282 283 284 285 285 286 287 288 288
284 284 284 283 283 284 284 284 285 286 285 284 283 282 282 281 281 281 283 282 282 282 282 282 282 282 281 281 281 282 283 284 285 286 286 287 287 288
284 284 284 284 284 284 284 284 285 284 283 283 282 281 281 281 283 282 282 282 282 282 282 281 281 280 280 280 281 282 283 284 285 285 286 287 287 288
284 284 284 284 284 284 284 286 283 282 282 281 281 282 283 282 282 282 282 282 282 281 280 281 280 280 280 280 281 282 283 284 285 285 286 287 287 288
284 284 284 284 283 284 285 283 282 281 281 282 283 282 281 281 281 282 281 280 280 280 280 280 280 280 280 280 281 282 283 284 285 285 286 287 287 288
284 283 283 283 283 285 283 282 281 280 281 282 279 279 279 279 280 280 280 280 280 280 280 280 280 281 281 281 282 281 282 283 284 285 286 287 288 288
283 283 283 282 284 282 282 281 280 283 281 278 278 279 279 279 279 279 279 279 279 279 279 280 281 280 280 281 282 282 282 283 283 283 284 285 286 287
283 283 282 283 282 281 280 280 282 281 278 278 278 279 278 278 278 278 278 278 278 279 279 279 280 280 281 281 282 283 283 284 284 284 284 285 286 287
283 282 282 281 279 278 279 280 279 277 278 278 279 278 277 277 277 277 278 278 279 279 280 280 281 281 282 282 283 283 285 284 284 284 286 287 289 289
282 281 280 278 278 278 277 277 277 277 278 278 277 277 277 277 277 277 278 278 279 279 281 282 283 283 283 283 283 284 285 285 287 289 290 290 291 290
281 279 277 277 276 276 277 277 277 277 277 277 277 276 277 277 277 277 278 278 279 280 281 282 283 283 283 284 284 286 286 288 290 290 290 291 291 291
279 277 276 276 276 276 276 276 276 277 276 276 276 276 276 276 277 278 277 278 279 281 282 283 283 283 284 286 286 285 288 289 289 290 290 291 291 292
276 276 276 276 276 276 276 276 276 276 276 275 275 275 276 276 277 277 277 278 279 281 284 283 283 283 284 284 285 288 287 289 289 290 290 290 290 294
276 275 275 275 275 275 276 276 276 275 275 275 276 276 275 276 276 277 277 278 281 283 282 283 283 283 285 284 284 286 288 288 289 290 290 290 290 293
275 275 275 275 275 275 275 275 275 275 276 276 275 275 275 276 276 277 278 280 282 283 282 282 283 285 285 285 287 287 287 288 288 289 289 290 290 290
275 274 274 274 274 274 275 274 275 275 275 275 275 275 276 276 277 277 278 280 281 283 282 283 284 285 285 283 285 285 286 287 288 289 289 289 289 289
274 274 274 274 274 274 274 274 274 274 275 275 275 276 276 277 277 278 279 281 283 283 282 282 283 284 284 284 284 284 285 287 287 288 288 289 290 289

GFSNE_925_thetae_033.txt.gz
Theta_e
286 286 286 286 285 285 286 285 286 287 287 286 286 285 285 285 285 285 285 285 286 286 287 287 288 288 289 290 291 291 291 291 291 291 291 292 294 296
286 286 286 286 285 285 285 285 285 285 287 285 285 285 285 285 285 285 285 285 285 286 286 286 287 287 288 288 288 289 289 289 290 290 291 292 293 294
286 286 285 285 285 285 285 285 285 285 286 285 285 285 284 285 285 285 285 285 285 285 285 285 285 286 286 287 287 288 289 289 289 290 291 291 293 293
286 285 285 285 284 284 284 284 284 284 285 285 285 285 285 285 285 285 285 284 283 283 283 284 285 285 286 286 286 287 287 288 288 289 289 289 290 291
286 285 284 284 283 283 284 284 284 284 284 285 285 285 285 285 285 283 283 282 282 282 282 283 284 284 285 286 286 286 286 286 287 287 287 288 289 290
286 285 284 284 284 284 285 285 285 285 285 285 285 286 285 284 283 283 283 282 283 283 283 283 283 283 284 284 284 284 285 285 285 286 286 287 288 289
285 284 284 284 284 285 285 285 284 285 285 286 285 284 284 283 283 282 283 283 283 283 283 283 283 282 283 283 283 283 283 284 285 285 286 287 287 288
284 284 284 284 284 284 284 284 285 285 287 285 284 284 283 282 282 283 283 283 284 283 283 283 283 283 283 282 282 283 283 284 285 286 286 287 287 288
284 284 284 283 284 283 283 284 285 286 284 284 283 282 282 282 283 283 283 283 283 283 282 282 282 282 282 282 282 282 283 284 285 286 286 287 287 288
284 284 283 283 283 284 284 285 285 283 282 282 282 282 283 283 282 282 282 282 282 281 281 283 281 282 281 281 282 283 283 284 285 286 287 287 288 288
284 284 283 283 283 284 285 284 283 282 281 282 283 283 281 281 281 282 282 281 282 281 280 281 282 282 281 282 282 283 284 284 285 286 287 287 288 289
284 283 283 283 283 285 284 283 282 281 281 283 281 279 279 280 280 280 280 280 280 281 281 281 281 282 283 282 283 283 283 284 285 286 287 287 288 288
283 283 283 283 284 283 282 281 281 282 282 280 279 279 279 280 280 279 279 279 279 279 279 280 281 281 281 283 283 283 283 284 285 285 286 287 288 288
283 283 282 283 282 281 280 280 282 281 279 279 279 279 279 279 278 278 278 278 278 278 279 279 280 281 282 283 284 284 285 286 286 286 286 287 288 289
283 283 282 281 280 279 279 280 279 278 278 278 279 279 278 278 277 277 278 278 278 279 280 280 280 281 282 284 285 285 286 287 287 288 289 289 289 289
282 282 280 278 278 278 277 277 278 278 278 278 278 277 277 277 278 278 277 278 279 280 280 281 282 283 284 284 285 286 286 288 288 289 289 290 290 290
282 279 278 277 277 277 277 277 277 277 278 277 277 277 277 277 277 277 278 278 278 280 281 282 283 284 284 284 286 287 287 288 289 289 290 290 291 291
279 277 277 277 277 276 276 277 277 277 277 276 276 276 277 276 277 278 278 278 279 280 281 283 284 284 285 287 287 287 287 288 289 289 290 290 291 290
277 276 276 276 276 276 276 276 276 276 276 276 276 276 276 277 277 277 277 278 279 280 282 284 284 285 286 288 287 287 287 288 288 289 290 290 290 292
276 276 275 275 275 275 275 276 276 276 276 276 276 277 276 276 277 277 278 278 280 282 283 284 284 284 286 287 286 286 288 287 288 289 290 290 290 291
275 275 275 275 275 275 275 275 275 275 276 276 275 276 276 276 277 277 278 280 282 282 284 284 284 284 284 284 287 288 287 288 288 288 289 290 290 290
274 274 274 274 274 274 274 274 275 275 275 275 276 276 276 277 277 278 279 280 281 282 284 284 284 284 284 286 287 287 287 288 288 288 289 289 289 289
274 273 273 273 274 274 274 274 274 275 275 275 276 276 277 277 278 279 280 281 282 284 284 284 283 284 284 285 285 286 287 288 288 288 289 289 290 290

GFSNE_925_thetae_036.txt.gz
Theta_e
289 289 289 288 288 288 288 288 289 290 290 289 289 288 287 287 287 286 286 287 287 287 287 288 288 288 288 289 290 290 290 291 292 292 293 294 294 294
288 288 288 288 288 288 288 287 287 288 290 288 288 287 287 286 286 286 286 286 286 286 287 287 287 287 288 288 288 289 289 290 290 291 292 292 293 293
288 288 288 287 287 287 287 287 286 286 288 287 287 287 286 286 286 287 286 286 286 285 285 285 286 286 287 287 288 288 289 290 290 290 291 291 292 292
288 288 287 287 286 286 286 286 286 286 286 288 287 286 286 286 287 286 286 285 285 284 284 285 286 286 286 287 287 288 288 289 289 289 290 290 291 291
288 287 287 286 286 286 286 286 286 286 286 286 287 287 287 287 287 286 285 284 285 284 285 285 285 286 286 286 287 287 287 287 288 288 288 288 289 290
287 287 286 286 285 285 286 286 286 286 286 286 287 287 288 286 285 285 285 284 285 285 284 285 285 285 285 285 286 286 286 286 286 287 287 288 288 288
287 286 286 285 285 285 286 286 286 285 286 287 287 288 286 286 285 284 285 285 285 284 285 285 285 285 285 285 285 285 285 285 286 286 286 287 288 288
286 286 285 285 285 285 285 285 285 286 286 287 287 286 285 284 284 284 285 286 286 284 284 284 284 284 284 285 284 285 285 286 286 286 287 287 288 288
286 285 285 285 285 284 284 285 285 286 286 285 285 284 284 284 284 285 284 284 284 284 284 285 284 284 284 284 284 285 285 286 286 287 287 288 288 288
285 285 285 285 284 284 285 285 286 285 284 284 283 283 284 284 284 283 283 283 283 284 283 285 284 284 284 284 284 285 285 286 287 287 288 288 289 289
285 285 285 284 284 285 285 285 284 284 283 283 283 284 284 283 282 282 283 283 284 283 282 283 284 284 283 284 285 285 286 286 287 287 288 289 289 289
285 285 284 284 284 285 285 284 283 283 282 283 284 282 282 282 282 282 282 282 282 283 283 283 283 283 284 284 285 284 285 286 287 288 289 289 289 289
285 284 284 284 284 284 283 282 282 282 283 282 281 282 282 282 282 282 281 281 281 281 281 281 282 282 282 284 284 285 285 286 287 288 288 289 289 290
284 284 284 284 283 282 281 281 281 282 281 281 281 281 281 281 281 280 280 279 279 280 280 279 280 281 283 284 285 285 286 287 288 288 288 289 289 290
284 283 283 283 281 280 280 280 280 280 280 280 280 281 280 280 279 279 280 280 280 280 281 281 281 282 283 284 285 286 287 287 288 289 289 290 289 290
283 283 282 281 279 279 279 280 280 280 280 280 280 280 279 280 280 280 280 280 280 281 281 282 282 283 284 285 286 286 287 289 289 289 289 289 290 290
282 281 280 279 279 279 279 279 279 279 280 279 279 279 279 279 279 279 280 280 281 281 282 283 283 284 285 285 286 287 289 289 289 289 289 290 291 291
280 279 279 279 279 279 279 279 279 279 279 279 278 278 279 279 279 280 280 280 281 281 282 283 284 285 286 287 288 289 289 288 289 289 290 290 291 290
278 278 278 278 278 278 278 278 278 278 278 278 278 278 279 279 279 279 280 281 281 282 283 284 285 286 287 287 288 288 288 288 288 289 290 290 290 290
278 278 278 278 278 278 278 278 278 278 278 277 278 278 278 279 279 280 280 281 282 283 284 284 286 286 287 287 287 286 288 288 289 289 289 289 290 290
277 277 277 277 277 277 277 277 277 277 278 278 277 278 278 279 279 280 280 282 283 284 285 285 285 286 285 286 288 289 289 288 289 289 289 290 290 291
277 277 277 277 277 277 276 276 277 277 277 277 278 278 278 279 280 280 281 282 283 284 284 285 286 286 286 287 288 288 288 289 289 289 289 289 290 290
276 276 276 276 276 276 276 276 276 276 277 277 277 278 279 279 280 281 282 283 284 285 286 286 286 286 286 288 287 288 288 289 288 289 290 290 290 290

GFSNE_925_thetae_039.txt.gz
Theta_e
291 291 291 290 290 290 290 290 290 290 290 290 290 290 289 288 288 288 287 287 288 288 289 289 289 289 289 289 290 290 290 291 291 292 293 293 294 294
290 290 290 290 290 289 289 289 289 289 289 289 289 288 288 288 287 287 287 288 288 287 287 288 288 288 288 288 289 289 290 290 291 292 293 293 294 294
290 290 290 289 289 288 288 288 288 288 288 288 288 288 288 287 287 287 288 287 287 287 286 287 287 288 288 288 289 289 289 290 290 291 292 292 293 293
290 290 289 289 288 288 287 287 287 287 287 288 288 287 287 287 287 288 287 287 286 286 286 287 287 287 288 288 288 289 289 289 289 290 290 290 291 292
290 289 289 288 288 287 287 287 287 287 287 288 287 287 287 287 288 288 286 286 285 285 285 286 286 287 287 287 288 288 288 288 288 289 289 289 289 290
289 289 288 288 287 286 286 286 287 287 287 287 286 287 287 287 287 286 286 285 285 285 285 286 286 286 286 286 287 287 287 287 288 288 288 288 289 289
289 288 287 287 287 286 286 286 286 286 286 286 287 287 287 286 286 285 285 285 284 285 285 285 286 285 285 285 285 286 286 287 288 288 288 289 289 289
288 287 287 286 286 286 286 286 286 286 286 287 287 287 286 285 285 284 284 285 286 284 284 284 284 285 285 285 285 286 287 287 288 288 289 289 290 290
287 287 286 286 286 286 285 285 286 286 286 286 286 285 285 284 284 284 285 285 284 283 283 284 284 284 284 284 285 286 286 287 288 289 289 290 290 290
286 286 286 286 286 285 285 285 286 286 285 285 284 284 284 284 285 285 284 283 283 283 284 284 284 283 284 284 284 285 286 287 288 289 289 290 290 291
286 286 286 286 285 286 286 285 285 284 284 283 283 283 284 285 284 284 283 283 283 283 283 283 283 284 283 283 284 285 286 287 287 288 289 290 290 291
285 285 285 285 285 285 285 285 284 283 283 283 283 283 283 282 283 283 283 283 283 282 282 282 282 282 282 283 284 283 284 285 287 288 289 290 290 291
285 285 284 285 285 285 285 284 283 283 283 283 282 282 282 282 282 282 282 282 282 281 281 281 281 281 281 282 282 283 284 285 286 286 288 289 290 291
284 284 284 284 284 284 283 282 282 282 281 281 281 281 281 281 281 281 280 280 280 280 280 281 281 281 281 282 282 283 284 285 286 287 287 288 289 290
284 284 284 283 283 282 281 281 281 281 281 281 281 281 281 281 280 280 280 281 281 280 280 281 281 282 282 283 283 284 286 286 286 287 289 289 289 289
283 283 282 282 281 281 280 280 280 280 281 281 280 280 280 280 280 280 280 280 280 281 281 281 282 283 284 284 284 285 286 286 287 289 289 289 289 290
283 281 281 280 280 280 280 280 280 280 280 280 280 280 279 279 280 280 280 281 281 281 281 282 283 283 284 285 286 286 286 288 289 289 289 289 289 290
281 280 280 280 280 279 279 279 279 279 279 280 279 279 279 279 280 280 281 280 281 281 282 282 283 285 285 286 287 287 287 288 288 288 288 289 289 289
279 279 279 279 279 279 279 279 279 279 279 279 279 279 279 280 280 279 280 281 281 281 282 283 284 285 286 286 286 287 287 286 287 288 289 289 289 289
278 279 278 278 278 278 278 278 278 278 278 278 279 279 279 279 280 280 280 281 281 282 284 284 284 285 286 287 286 286 286 287 288 289 289 289 289 290
278 278 278 278 278 278 278 278 278 278 279 279 278 279 279 279 280 280 281 282 283 283 284 284 285 286 286 286 286 287 287 287 288 289 289 289 290 290
278 278 278 278 278 278 278 277 278 278 278 278 278 279 279 279 280 281 281 282 283 284 285 286 285 285 287 286 287 287 287 288 288 288 289 290 290 290
277 277 277 277 277 277 277 277 277 277 277 278 278 279 279 280 280 281 282 284 285 286 285 285 285 286 286 286 287 287 287 288 288 288 289 290 291 291

GFSNE_925_thetae_042.txt.gz
Theta_e
291 291 291 291 290 290 290 290 289 288 288 288 289 289 288 288 288 288 288 287 288 289 289 289 289 290 290 290 290 291 291 291 292 293 293 294 294 295
291 290 290 290 290 289 289 289 289 288 287 288 287 287 287 288 288 287 287 287 287 288 288 288 289 289 289 289 290 290 291 291 292 292 293 294 294 294
290 290 290 290 289 289 288 288 287 287 286 287 287 287 287 287 287 287 286 287 287 287 287 288 288 288 289 289 289 290 290 290 291 291 292 293 293 294
290 290 290 289 289 288 288 287 287 287 287 286 287 286 286 286 286 286 287 287 287 286 286 286 287 287 288 288 289 289 289 290 290 290 291 291 292 292
290 290 289 289 288 288 287 286 286 286 286 286 286 286 285 285 286 286 287 285 285 285 285 285 285 287 287 287 288 288 289 288 289 289 289 290 290 291
290 289 289 288 288 287 287 286 286 286 286 285 285 285 285 286 286 286 285 284 284 284 284 285 286 285 286 286 286 287 287 287 288 288 289 290 290 290
288 288 288 287 287 287 287 287 287 286 286 285 285 285 286 286 285 285 284 284 283 283 284 284 284 283 283 284 285 285 286 287 288 288 289 290 290 291
287 287 287 286 286 286 287 286 287 286 286 285 286 286 285 285 284 284 283 283 284 284 284 283 283 283 283 284 284 285 286 287 288 289 289 290 290 291
286 286 286 286 286 285 285 286 286 286 286 285 285 285 284 284 283 283 284 284 285 283 283 283 283 283 283 283 283 285 286 287 288 288 289 290 290 290
285 285 286 286 285 286 286 286 286 285 285 284 284 283 283 284 284 285 285 284 283 283 283 283 283 282 282 282 283 284 285 286 288 288 289 289 290 291
285 285 285 285 285 286 286 286 285 285 283 283 283 283 284 284 284 283 283 282 282 283 282 282 282 282 281 281 282 283 285 285 285 286 287 288 289 290
284 284 284 285 285 286 286 285 285 283 283 283 283 282 281 281 282 281 281 282 282 281 282 281 281 281 281 281 282 281 282 282 284 285 286 287 288 289
285 284 284 284 285 285 285 284 283 283 283 282 281 281 281 281 281 281 281 281 281 280 280 281 281 281 281 280 281 281 281 282 283 283 285 287 288 289
284 284 283 284 285 284 283 282 283 283 281 280 280 280 280 280 280 280 280 280 280 280 280 281 281 281 281 281 281 282 282 283 283 284 285 286 287 289
283 283 284 283 282 282 281 282 281 280 280 280 280 280 280 280 280 279 279 279 280 280 280 280 280 280 281 281 282 282 284 284 284 285 286 286 287 288
283 283 282 281 280 280 280 280 279 279 280 280 280 280 279 279 279 279 279 279 279 280 280 281 281 281 281 282 283 283 284 284 285 286 286 288 288 288
283 281 279 279 279 279 279 279 279 279 279 279 279 279 279 279 279 279 279 279 280 280 280 281 281 282 282 282 283 284 285 285 286 286 286 287 287 288
281 279 279 279 279 278 278 278 278 278 278 278 279 279 279 279 278 279 280 279 279 280 281 281 281 282 283 284 285 285 286 286 286 286 286 287 288 288
278 278 278 278 278 278 278 278 278 278 278 278 278 278 278 278 279 278 279 279 280 280 280 281 282 283 284 284 285 286 286 285 286 286 287 287 288 288
278 278 278 277 277 278 278 278 278 277 277 277 278 279 279 278 278 279 279 279 280 281 283 283 282 284 285 286 286 285 286 286 286 287 287 288 288 288
277 277 277 277 277 277 277 277 277 277 278 278 278 278 278 279 279 279 279 281 282 282 283 283 284 285 285 285 286 286 286 287 287 287 288 288 288 289
277 277 277 277 277 277 277 277 277 277 277 277 278 278 279 279 279 280 280 280 281 282 283 284 285 285 285 285 286 286 287 287 287 288 288 288 289 290
277 277 277 277 277 277 277 277 277 277 277 278 278 279 279 279 280 280 280 281 282 283 285 285 285 285 284 285 286 287 287 287 287 287 288 289 290 290

GFSNE_925_thetae_045.txt.gz
Theta_e
292 291 291 291 290 290 290 289 288 286 287 288 288 288 287 287 287 287 288 287 287 288 288 289 290 290 290 291 291 291 292 293 293 293 294 294 295 296
291 291 290 290 290 290 289 289 288 287 285 287 286 286 286 287 287 287 286 286 286 287 288 289 288 289 290 290 290 290 291 291 292 293 293 294 294 295
290 290 290 290 289 289 288 288 288 287 285 286 286 286 286 286 286 285 285 285 286 286 287 287 288 288 288 289 289 289 290 290 291 292 292 293 293 294
290 290 290 289 289 289 288 287 287 286 286 285 285 285 285 285 285 285 285 285 286 286 285 286 286 287 287 288 289 289 289 290 290 290 290 291 291 292
290 290 290 289 289 288 287 287 286 286 286 286 285 285 285 285 285 285 285 285 285 284 284 284 285 285 287 287 287 288 288 288 288 288 289 289 290 291
289 289 288 288 288 287 287 287 287 286 286 286 285 285 285 285 285 285 284 284 284 283 283 284 284 285 285 285 285 286 286 286 287 288 289 290 291 291
287 287 287 287 287 287 287 287 287 286 286 286 284 285 285 285 284 284 283 283 283 283 283 284 284 283 283 283 283 284 285 286 287 288 289 290 290 291
286 286 286 286 286 286 286 286 287 287 286 286 285 285 284 284 283 283 283 283 283 284 284 283 283 282 282 282 283 284 285 286 287 288 288 289 290 291
285 285 285 285 285 285 285 286 286 286 286 286 285 284 284 283 283 282 283 284 284 284 283 283 282 282 282 282 283 283 284 286 286 287 288 289 290 290
284 284 284 285 285 285 286 286 286 285 285 285 284 284 283 284 284 284 284 283 282 282 282 282 282 282 281 281 282 283 284 285 286 287 287 287 288 289
284 284 284 284 284 286 286 286 285 285 284 283 283 284 284 283 283 282 282 281 281 281 281 281 281 281 280 280 281 282 283 284 284 285 285 286 287 288
284 284 284 284 285 285 286 285 284 283 283 283 283 282 281 281 281 281 281 280 280 281 281 281 280 280 281 281 281 281 281 281 282 283 284 285 286 287
284 283 283 283 285 285 285 284 283 283 283 281 280 280 280 280 280 280 280 280 280 280 280 280 281 280 280 280 281 281 280 281 281 282 283 284 285 287
283 283 283 284 284 283 282 282 283 283 280 279 279 280 280 280 280 279 279 279 279 279 279 279 279 280 280 280 280 280 281 281 282 283 283 284 285 286
283 283 283 282 281 280 280 281 281 279 279 279 279 279 279 279 279 279 279 279 279 279 279 279 279 279 279 280 280 280 282 282 282 283 285 284 285 285
283 282 281 279 279 279 279 279 279 279 279 279 279 278 278 278 279 279 278 278 278 279 280 280 280 280 280 280 281 282 282 283 283 283 284 285 285 285
282 280 278 278 278 278 278 278 278 278 278 278 278 278 278 278 278 278 278 278 278 279 278 279 280 280 280 281 281 282 282 283 283 284 285 285 285 286
279 278 278 278 277 277 278 278 277 278 277 277 277 277 278 278 278 278 279 279 278 278 279 279 279 280 281 282 283 282 283 284 285 285 285 285 286 286
277 277 277 277 277 277 277 277 277 277 277 277 277 277 277 277 279 278 278 278 279 279 279 279 280 282 282 283 284 285 286 286 285 285 285 286 286 287
277 277 277 277 277 277 277 277 277 277 276 277 277 278 278 278 278 278 279 279 279 280 281 282 281 282 283 284 285 285 284 285 286 286 286 287 287 287
277 277 277 277 277 277 277 276 276 276 278 278 277 278 278 278 278 279 279 280 282 281 281 281 282 284 285 284 284 285 285 286 286 287 287 287 287 288
276 277 277 277 277 277 277 277 277 277 277 277 278 278 278 279 279 279 280 280 280 281 282 282 284 284 284 285 284 284 286 286 287 286 287 287 288 288
277 277 277 277 277 277 277 277 277 277 278 278 279 279 279 280 280 281 281 281 282 282 284 284 284 285 284 285 285 286 286 286 286 287 288 289 289 289

GFSNE_925_thetae_048.txt.gz
Theta_e
292 292 292 291 291 290 290 290 288 287 286 288 288 287 287 286 286 286 286 286 286 287 288 288 289 290 290 290 291 292 293 292 293 293 294 295 295 296
291 291 291 290 290 290 289 289 288 288 285 287 287 286 286 285 285 285 285 285 285 286 287 288 288 289 289 290 290 290 291 291 292 292 293 294 294 295
291 290 290 290 290 289 289 288 288 287 284 286 286 286 286 286 286 285 284 284 284 285 286 287 287 288 288 288 289 289 289 290 291 291 292 293 294 294
290 290 290 289 289 289 288 288 287 287 286 284 285 286 286 286 285 285 285 284 284 284 285 286 286 286 287 287 288 289 289 289 289 290 290 290 291 292
290 290 290 289 289 288 288 287 287 287 286 285 285 285 285 285 285 284 284 284 284 284 284 284 285 285 286 287 288 287 287 287 288 288 288 289 290 290
290 289 288 288 288 287 287 287 287 286 286 286 285 285 285 285 284 284 283 283 283 283 283 283 284 285 285 285 285 285 285 286 286 287 288 289 290 291
286 286 286 287 287 288 288 287 287 286 286 286 284 285 284 284 284 283 282 282 282 283 283 283 284 284 283 283 283 283 284 285 287 287 288 288 289 290
285 285 285 285 285 286 287 287 287 287 287 286 286 285 284 284 283 283 282 282 283 283 284 283 282 282 282 282 282 284 285 285 286 287 287 288 288 290
284 284 284 284 284 284 285 286 286 286 286 286 285 284 284 284 283 283 282 283 283 283 282 281 281 281 281 282 282 283 284 285 286 286 287 287 289 290
283 284 284 284 284 285 285 286 285 285 285 285 285 284 284 284 284 284 283 282 282 281 281 281 281 281 281 281 281 282 283 284 285 286 286 287 287 287
284 284 284 284 284 285 286 286 285 284 283 284 284 284 284 283 283 282 281 281 280 280 280 280 280 280 280 280 281 282 283 284 284 284 285 285 286 286
284 284 283 283 284 285 286 285 283 283 283 283 282 282 281 281 281 281 280 280 279 280 281 280 280 280 280 281 281 281 280 281 282 283 284 284 285 286
283 283 282 283 285 285 284 283 282 283 283 282 280 280 280 280 280 280 280 279 279 279 279 280 280 279 279 280 280 280 280 280 280 281 281 283 284 285
283 282 283 284 283 282 282 281 282 282 280 279 279 279 279 279 279 279 279 279 279 278 279 279 278 278 279 279 279 280 280 280 280 281 281 282 283 285
283 283 283 282 280 279 280 281 281 279 279 278 279 279 279 278 279 278 279 279 279 279 279 279 278 279 279 279 279 279 281 281 281 281 282 283 283 283
282 281 280 279 279 279 279 279 279 278 279 279 278 278 277 278 278 278 278 278 278 278 279 279 279 279 278 279 279 280 281 281 282 282 282 282 283 284
281 279 278 278 278 278 278 278 278 278 278 278 277 277 277 277 277 278 277 277 278 278 278 279 279 279 279 279 279 280 281 281 281 282 282 284 284 285
278 277 277 277 277 277 277 277 277 277 277 276 276 276 277 277 277 278 279 278 278 278 278 278 279 279 279 280 281 280 281 282 283 284 284 284 285 285
277 277 277 277 277 277 277 277 277 277 277 276 277 277 277 277 279 278 278 278 278 278 279 279 279 281 281 282 283 284 284 285 285 285 285 285 285 285
276 276 277 277 277 277 277 276 276 277 276 277 278 278 278 277 278 278 278 278 279 280 281 282 281 281 281 282 284 284 284 284 285 285 285 285 286 286
276 277 277 277 277 277 277 277 276 276 277 278 278 278 278 278 278 279 279 281 282 281 281 282 283 283 284 283 284 285 285 285 285 286 286 287 286 287
277 277 278 277 277 277 277 277 277 277 278 278 279 279 279 279 279 279 280 281 281 282 282 282 283 284 284 285 284 284 285 285 286 286 286 287 287 288
277 277 278 278 278 278 278 277 277 278 279 280 280 280 280 280 281 281 281 283 283 284 284 284 284 284 284 284 285 285 285 285 286 286 287 288 289 289

GFSNE_925_thetae_051.txt.gz
Theta_e
297 296 293 292 291 291 290 290 289 287 285 288 288 288 287 286 286 286 286 285 286 287 287 288 289 289 290 290 291 291 292 292 293 293 293 294 295 296
293 293 291 291 290 290 290 289 289 288 285 287 287 287 286 286 286 286 285 285 285 285 286 287 287 288 289 289 290 290 290 291 291 292 293 294 295 295
291 290 290 290 290 290 289 289 288 287 285 286 286 286 286 286 286 285 285 284 284 284 285 286 287 288 288 288 289 289 289 290 291 292 292 293 293 294
291 290 290 289 289 289 289 288 288 287 286 284 285 285 286 286 286 285 285 284 284 283 284 285 286 286 287 287 288 288 289 290 290 289 290 290 291 292
291 290 290 291 290 288 288 287 287 287 286 285 284 285 285 286 285 285 284 284 283 283 283 284 284 285 286 287 287 287 287 288 288 288 288 289 289 290
292 293 290 288 287 287 287 287 287 287 286 286 285 285 285 285 285 284 283 283 282 283 283 283 284 285 285 285 285 286 286 286 286 287 287 288 288 289
287 286 286 286 287 288 288 288 287 287 286 286 284 285 284 285 284 283 283 282 282 282 283 283 283 283 282 282 283 283 284 285 286 287 287 288 289 289
285 285 285 285 285 285 286 287 287 287 287 286 286 284 285 284 283 283 282 282 283 283 283 282 282 281 282 282 282 283 285 285 286 286 287 287 288 289
284 284 284 284 284 284 284 286 286 286 286 286 285 285 284 284 284 283 282 282 283 282 282 281 281 281 282 281 282 283 284 285 285 286 286 287 287 288
284 284 284 284 284 285 285 285 285 285 285 285 284 284 284 284 284 284 283 282 281 281 281 280 281 280 281 281 281 282 284 284 285 286 286 287 287 287
284 284 284 283 283 285 285 286 285 284 283 283 284 284 284 283 283 282 281 281 280 280 280 280 280 280 280 280 282 282 283 284 284 284 285 285 286 286
284 283 283 283 284 285 286 284 283 283 283 283 283 282 281 281 281 281 280 279 279 280 281 280 280 280 280 281 281 281 281 281 282 283 283 284 284 285
283 283 282 283 284 284 284 283 282 283 283 282 280 280 281 281 281 280 279 279 278 279 279 280 280 279 279 279 279 280 279 280 280 280 281 282 283 284
283 283 283 284 283 282 281 281 282 283 280 279 279 279 279 280 280 280 280 279 278 278 279 278 278 278 278 278 278 279 280 279 280 280 281 281 282 283
283 283 282 281 280 279 279 281 280 279 279 278 278 279 279 278 279 279 279 278 278 279 279 279 278 278 278 278 278 279 279 280 280 280 281 282 282 282
282 280 279 278 279 279 279 279 279 279 279 279 278 278 277 278 278 278 277 277 277 278 280 279 279 279 278 278 278 278 279 280 281 281 281 281 281 281
281 279 278 278 278 279 279 279 278 278 278 278 276 276 277 277 277 278 277 277 277 277 278 280 279 279 279 278 278 279 279 279 280 281 281 281 282 283
279 277 277 277 277 277 277 278 278 278 278 277 277 277 277 277 277 278 278 277 277 278 278 278 278 279 279 280 280 279 280 280 281 282 283 284 284 285
277 277 277 277 277 277 277 277 277 278 277 277 277 278 278 277 278 277 277 278 278 278 279 279 279 280 281 282 282 283 283 283 284 284 285 285 284 284
277 277 277 277 277 277 277 277 277 278 277 278 278 278 278 278 277 278 278 278 279 280 282 282 282 282 282 283 284 284 284 284 284 285 285 285 285 285
277 277 277 278 278 277 277 278 277 278 277 278 279 279 279 279 279 279 279 281 282 282 282 283 283 284 284 283 284 284 285 285 285 285 285 286 286 286
277 277 278 278 278 278 278 278 278 279 279 279 280 279 280 280 280 280 280 281 281 282 283 284 283 283 283 284 284 284 285 285 285 286 286 286 287 287
278 277 278 278 278 278 278 278 279 280 280 280 280 280 280 280 281 281 282 281 283 283 284 283 283 283 283 284 284 285 285 285 286 287 287 289 289 289

GFSNE_925_thetae_054.txt.gz
Theta_e
297 294 294 295 295 292 291 291 291 288 286 288 289 288 288 287 287 286 286 285 287 287 287 288 288 289 289 290 290 291 291 292 292 293 293 294 295 295
294 295 292 292 291 291 290 290 289 289 286 288 288 288 287 287 286 286 286 285 285 285 286 287 287 288 288 289 290 290 291 291 291 292 293 293 294 295
293 293 291 291 290 290 290 289 289 288 287 287 287 287 286 286 286 286 286 285 284 284 285 286 286 287 288 288 289 289 289 290 291 291 292 293 294 294
290 290 290 290 290 290 290 291 289 287 286 285 286 286 286 286 286 286 285 285 284 283 284 285 286 286 287 287 288 288 289 289 289 290 290 291 291 291
290 291 291 292 292 292 290 288 287 287 286 285 284 285 285 286 286 285 285 284 283 283 284 284 284 285 286 287 287 287 287 288 288 288 288 289 289 290
292 292 292 291 289 287 287 287 287 287 287 286 285 285 285 285 285 284 283 283 283 283 283 283 284 284 285 285 285 285 285 286 286 287 287 288 288 289
292 289 287 286 286 287 288 288 287 287 286 286 285 285 284 285 284 284 283 282 282 283 283 283 283 282 282 283 283 283 283 285 286 287 287 288 288 289
287 284 284 284 285 285 285 286 287 287 287 286 286 284 284 284 284 283 283 282 283 283 283 282 282 281 282 282 282 283 284 285 286 286 287 287 288 288
284 284 284 284 284 284 284 285 285 286 286 286 285 285 284 284 284 284 283 283 282 282 281 281 281 281 282 282 282 283 284 285 286 286 286 287 287 288
284 284 284 284 283 284 285 285 285 285 285 284 284 284 284 284 284 284 283 282 281 281 281 280 281 280 281 281 282 282 284 284 285 286 286 286 287 287
284 284 284 283 283 285 285 285 285 283 283 283 283 284 283 283 282 282 281 280 279 280 280 279 279 280 280 280 282 282 283 284 284 284 285 285 286 286
284 283 282 283 284 285 285 284 282 282 282 283 283 282 281 281 281 281 280 279 278 279 281 280 280 279 279 281 280 281 280 281 281 282 283 284 284 284
283 283 282 283 284 284 283 282 281 283 283 282 281 281 281 281 281 280 280 278 278 278 279 279 280 279 279 279 279 279 279 280 280 280 280 281 282 283
283 283 283 283 282 281 281 281 283 282 281 280 279 280 280 280 281 281 281 280 279 278 279 277 277 277 277 278 278 279 279 279 279 279 280 280 281 282
282 282 281 280 279 279 280 281 280 280 279 279 279 278 278 280 281 281 281 280 279 280 280 279 278 277 277 277 278 278 279 280 279 279 280 281 281 281
281 280 278 278 279 279 280 280 279 279 279 278 278 278 279 280 280 279 278 279 277 279 280 280 279 279 277 277 278 278 278 279 280 280 280 280 280 280
280 278 278 278 279 279 279 279 279 279 279 278 278 278 279 278 279 279 278 278 276 277 278 280 280 279 279 278 278 279 279 279 279 280 280 280 281 282
278 277 277 277 278 278 278 278 279 279 278 277 278 278 278 278 278 279 278 277 277 277 278 278 279 279 280 281 281 279 280 280 280 281 281 282 283 284
277 277 277 277 277 278 278 277 277 278 278 278 278 278 278 278 278 278 278 277 278 279 279 280 281 282 282 282 283 284 283 283 284 284 284 284 284 284
277 277 277 277 278 277 277 277 278 278 279 279 278 279 279 279 278 278 279 279 279 281 282 282 282 283 283 284 284 283 284 284 284 284 285 285 285 285
277 278 278 278 278 278 278 278 278 278 278 278 279 280 280 279 279 280 280 281 282 282 282 282 283 284 283 283 283 284 284 284 285 285 285 286 286 286
277 278 278 278 278 278 278 278 278 279 280 280 280 281 281 280 280 281 281 282 282 282 282 283 284 284 283 283 283 283 284 285 285 286 286 287 287 287
277 277 278 279 279 279 278 278 278 279 280 280 280 281 280 279 281 281 282 282 282 283 284 283 284 283 283 283 283 283 283 285 285 286 287 288 289 289

GFSNE_925_thetae_057.txt.gz
Theta_e
307 300 298 295 294 294 294 294 295 294 291 288 289 288 288 288 288 287 287 286 287 288 288 288 288 289 289 290 290 291 291 292 293 293 294 294 295 296
299 296 293 294 293 292 291 290 291 290 291 289 289 289 289 287 287 286 286 286 286 286 287 287 287 288 288 289 290 290 291 291 292 292 293 294 294 295
293 293 292 291 291 291 290 290 291 291 290 290 289 287 287 287 287 286 286 286 285 285 285 286 287 287 288 289 289 289 290 290 291 292 292 293 294 295
292 291 290 291 291 292 292 292 292 291 288 287 286 286 286 287 286 286 286 285 285 284 285 286 286 287 287 288 288 289 289 289 290 290 290 291 291 292
291 291 291 292 292 292 291 290 288 287 286 285 286 285 285 286 286 285 285 284 284 283 284 284 285 285 286 287 287 288 288 288 288 288 289 289 289 290
292 293 293 292 291 289 288 287 286 286 287 286 286 286 285 285 285 285 285 284 284 284 284 284 284 284 285 285 286 286 286 286 287 287 288 288 288 289
292 292 291 289 287 287 287 288 287 287 286 286 286 286 286 286 286 285 284 284 284 283 284 283 283 283 283 283 283 284 284 285 286 287 288 288 289 289
290 286 284 284 285 286 286 286 287 287 286 286 286 286 286 285 284 284 284 284 284 284 283 283 283 283 283 283 283 284 285 285 286 286 287 288 288 289
284 283 284 284 284 284 284 285 285 286 286 286 286 285 285 284 284 283 284 284 283 283 283 283 283 283 283 282 283 283 284 285 286 286 287 287 287 288
284 284 284 284 283 284 285 285 285 285 285 284 284 284 284 284 284 284 283 283 282 282 282 282 283 283 282 282 282 283 284 284 285 286 286 286 287 287
284 284 283 283 283 285 285 285 285 283 283 282 283 284 284 283 282 283 282 282 282 282 281 281 281 282 281 282 282 282 283 283 284 284 284 285 286 286
283 283 282 283 284 285 285 284 282 282 282 283 282 282 281 282 282 281 281 280 280 281 281 281 281 281 281 282 282 282 281 281 282 282 283 284 284 284
283 283 282 283 284 283 283 282 281 283 283 282 281 281 281 282 281 281 280 279 279 279 280 280 280 280 280 280 281 281 280 281 281 281 281 281 282 282
283 282 282 282 281 281 281 282 283 282 281 280 280 280 280 281 282 282 282 280 279 279 281 278 277 278 278 279 280 280 281 281 280 280 280 281 281 282
282 282 281 280 279 280 280 281 280 280 279 279 280 280 280 281 282 282 282 281 280 281 281 280 278 278 277 278 279 279 280 281 280 280 281 281 281 281
281 280 278 279 279 279 280 280 279 279 279 279 279 278 279 280 280 281 279 279 278 281 281 281 280 279 278 278 278 279 280 281 281 281 281 281 281 282
280 278 278 279 279 279 279 279 279 279 278 278 277 277 278 279 280 280 279 278 278 279 280 281 280 279 279 279 279 280 280 281 281 281 281 281 282 282
278 277 277 277 278 278 278 278 279 279 278 278 277 277 277 278 278 280 280 279 279 279 279 280 281 280 281 282 282 280 282 282 283 283 283 283 284 284
277 277 277 277 277 278 278 277 277 279 279 279 278 279 278 278 279 280 280 280 280 281 281 281 282 283 284 284 284 285 285 285 285 284 284 285 285 285
277 277 277 278 278 277 278 278 278 278 279 279 279 279 279 278 278 280 280 281 281 283 283 283 283 283 284 285 286 284 283 284 284 285 285 285 285 286
277 277 278 278 278 278 278 278 278 278 278 278 279 280 280 278 279 280 281 282 283 283 283 283 284 284 283 284 284 284 284 284 284 284 285 286 287 287
277 277 278 278 278 278 278 278 278 279 279 279 280 279 280 279 279 280 281 282 282 283 283 283 284 284 284 284 285 284 284 284 284 285 286 286 287 289
277 278 278 279 279 279 279 278 278 279 279 279 279 279 279 278 280 281 281 282 282 283 285 285 284 284 285 285 285 284 284 284 285 285 286 287 287 288

GFSNE_925_thetae_060.txt.gz
Theta_e
310 308 309 309 300 297 295 295 298 297 295 290 289 288 289 289 288 288 292 288 288 289 289 290 290 290 290 290 291 291 292 292 293 294 294 295 295 296
304 304 299 295 293 293 293 294 294 293 293 290 289 290 289 291 292 289 287 288 287 288 288 289 288 288 289 289 290 291 291 292 292 293 293 294 295 296
300 297 295 293 291 292 292 293 293 293 292 291 291 292 291 289 287 287 287 287 287 287 287 287 287 288 289 289 290 290 290 291 292 292 292 293 294 295
292 292 291 291 292 293 294 294 294 293 292 290 288 287 286 287 287 287 287 287 287 286 286 286 287 288 288 288 289 289 290 290 290 291 291 291 292 292
292 292 293 293 293 292 293 292 291 290 288 287 288 287 287 287 286 287 287 287 286 286 285 286 286 287 287 288 288 288 288 289 289 289 289 290 290 290
292 292 292 293 293 292 291 290 288 287 287 287 288 288 288 287 287 286 287 287 286 286 286 286 286 286 286 286 287 287 287 287 287 288 288 288 289 289
293 293 292 292 292 289 287 287 288 288 288 288 288 288 288 288 288 287 286 286 286 286 286 286 286 286 286 286 286 286 286 286 287 287 288 288 289 289
290 289 288 286 287 287 287 287 288 288 288 288 288 288 287 287 286 286 285 285 286 286 286 286 286 286 286 286 286 286 286 286 287 287 287 288 288 288
285 285 285 285 284 284 284 285 286 286 287 287 287 287 286 286 285 285 285 285 285 285 285 285 285 285 286 285 285 285 285 286 286 287 287 287 288 288
284 285 285 284 284 285 285 286 286 286 286 285 285 285 285 285 285 285 285 285 285 285 285 285 285 285 285 285 285 285 285 285 286 286 286 287 287 287
284 284 284 284 284 286 286 286 286 285 284 283 283 284 284 284 284 284 284 285 285 285 284 284 285 285 284 284 284 285 284 284 285 285 285 286 286 286
284 284 283 284 285 285 286 285 284 284 283 284 284 283 283 282 282 283 283 283 283 283 285 283 284 283 283 284 284 284 284 284 284 284 284 285 285 285
284 284 283 283 284 283 283 284 283 283 284 283 283 283 283 283 283 283 283 282 281 282 283 283 282 282 282 282 283 283 283 283 283 283 284 284 284 284
283 283 283 282 281 281 282 282 283 283 282 282 283 283 284 284 283 282 282 281 281 280 282 280 280 281 281 281 282 283 283 283 283 283 283 283 284 284
282 282 281 280 280 281 281 281 281 281 282 282 283 283 283 282 281 281 282 281 281 281 281 281 279 279 279 280 281 281 282 283 282 282 283 283 283 283
281 281 279 279 280 280 280 281 281 281 281 282 282 282 281 281 282 282 282 281 281 282 283 282 281 280 279 280 280 281 281 282 283 283 284 284 283 283
281 279 280 280 281 281 281 281 280 280 281 281 281 281 281 281 282 282 282 281 281 282 282 282 282 282 282 282 281 281 282 283 284 284 284 284 284 284
279 279 280 281 281 281 281 281 281 280 281 280 280 280 280 280 281 282 282 283 283 283 282 283 283 283 284 285 284 283 284 284 285 286 286 286 286 286
279 280 280 280 280 280 280 280 280 280 279 278 279 279 279 279 280 282 283 283 283 284 284 284 285 285 286 286 285 285 285 286 285 285 285 286 286 287
279 279 280 280 280 280 280 280 279 279 279 279 279 279 279 280 280 282 282 283 283 284 285 284 285 285 286 286 285 284 284 284 285 285 285 286 286 286
279 279 279 279 279 279 279 278 278 278 278 278 279 278 279 279 280 281 282 283 284 284 284 285 285 285 285 284 285 286 286 285 285 285 285 286 286 287
278 278 279 279 278 278 278 277 277 278 278 279 279 279 279 279 280 281 282 283 283 284 284 284 285 286 285 286 286 286 285 285 285 285 285 285 286 288
278 278 278 278 278 277 277 277 277 278 278 278 278 279 279 279 279 280 280 282 283 284 285 285 286 286 286 287 286 285 285 286 285 286 286 286 286 287

GFSNE_925_thetae_063.txt.gz
Theta_e
319 319 312 307 305 304 305 304 302 297 295 292 290 290 290 291 291 291 290 289 292 291 291 291 291 291 291 291 292 292 292 293 293 294 295 296 296 297
314 312 307 304 301 299 296 296 298 298 295 290 290 290 290 290 291 290 291 292 289 289 290 290 290 290 290 290 290 291 292 292 293 294 294 295 295 296
308 305 301 298 297 295 294 294 296 297 296 291 291 291 290 291 292 291 288 288 288 288 289 289 289 289 289 290 290 291 291 291 292 292 293 294 294 294
299 298 297 295 294 294 295 296 296 295 294 292 291 290 291 291 290 287 287 288 287 287 288 288 288 289 289 289 290 290 290 290 291 291 292 292 292 293
296 295 293 294 294 294 295 294 293 293 292 290 289 289 288 288 287 287 288 288 287 287 287 287 287 288 288 289 289 289 290 290 290 290 290 290 291 291
292 292 293 294 293 293 292 292 290 290 289 288 288 288 288 288 288 288 288 288 287 287 287 287 288 288 288 288 288 288 288 288 288 288 289 289 289 289
292 292 292 292 292 292 292 290 288 288 289 289 289 289 289 289 289 288 287 287 286 286 286 287 287 287 287 287 287 287 287 287 288 288 288 289 289 289
290 290 289 288 289 289 289 289 289 289 289 289 289 289 288 288 288 287 286 285 286 286 286 285 286 286 286 286 287 287 287 287 287 288 288 288 288 288
287 287 286 285 285 284 285 286 287 287 287 287 288 287 287 287 286 285 285 285 285 285 286 286 286 286 286 286 286 287 287 287 287 287 288 288 288 288
286 286 286 285 284 285 286 286 287 287 286 286 286 286 286 286 285 285 285 286 285 285 286 286 286 286 286 286 286 286 286 287 287 287 287 287 288 288
285 285 285 285 284 286 286 286 287 286 285 285 284 284 284 285 285 285 284 285 285 285 285 285 285 285 285 284 285 285 286 286 286 286 287 287 287 287
285 284 284 284 285 286 285 286 285 284 283 284 285 285 284 284 284 283 283 284 284 283 285 284 284 284 284 284 284 284 284 284 285 286 286 286 286 286
284 284 283 284 284 283 283 283 283 283 284 284 284 284 284 284 284 284 284 283 283 282 283 283 283 283 282 283 283 283 283 283 284 284 284 285 285 285
284 283 283 283 282 282 282 283 284 284 283 283 283 284 284 284 284 283 283 282 282 282 282 281 281 281 281 281 281 281 282 282 282 283 284 284 284 285
282 282 281 281 281 282 281 282 282 282 282 283 284 284 284 283 282 282 282 282 282 282 282 282 281 281 280 280 280 280 281 281 281 282 284 284 284 284
283 282 280 280 281 281 281 282 282 282 282 282 282 282 282 282 282 282 282 282 282 282 282 283 283 283 282 281 281 281 281 282 282 282 283 284 284 285
281 280 280 281 282 282 282 282 282 281 281 282 282 281 281 281 281 282 282 282 283 283 283 283 283 283 283 283 282 283 283 283 284 284 284 285 286 286
280 280 281 282 282 282 282 282 282 282 282 281 280 280 280 280 280 280 281 282 283 283 283 284 284 284 285 285 285 284 285 285 285 286 286 286 285 285
280 281 281 281 281 281 281 281 281 281 280 279 280 280 279 279 280 280 281 282 283 283 283 284 284 285 285 285 286 286 285 285 284 284 285 285 286 286
279 280 281 281 281 281 281 280 280 280 279 280 279 279 279 280 280 280 281 282 283 283 284 284 284 285 285 286 285 285 285 285 285 285 286 286 285 285
280 280 280 280 280 280 280 279 279 279 279 279 279 279 279 279 280 280 280 282 283 284 284 283 284 285 285 285 285 286 286 286 286 286 286 286 286 286
279 279 279 280 280 279 279 279 278 279 279 279 279 279 279 279 280 280 280 281 281 282 283 283 284 285 286 286 286 286 286 287 286 285 286 286 286 286
278 279 279 279 279 279 279 279 279 279 279 279 279 279 279 279 280 280 280 280 281 282 283 284 285 286 286 286 286 287 287 287 286 285 285 286 286 286

GFSNE_925_thetae_066.txt.gz
Theta_e
326 324 322 317 313 311 309 309 307 300 299 294 294 297 295 294 292 293 291 292 292 292 292 294 293 293 293 293 293 293 293 293 294 294 295 296 297 297
321 320 317 312 307 305 305 305 306 301 298 293 292 291 291 291 291 290 292 292 292 294 293 292 292 292 292 292 292 292 292 293 294 294 295 295 296 296
314 312 308 304 302 301 300 299 299 300 296 291 291 289 289 290 291 292 293 293 291 289 289 290 290 291 291 291 291 291 292 292 292 293 293 294 294 295
306 304 301 299 298 297 297 297 297 297 296 292 290 290 292 292 292 291 289 288 287 288 289 289 290 290 289 290 290 291 291 291 291 291 292 292 292 293
299 299 297 296 295 294 295 294 295 295 296 293 291 292 290 289 288 287 288 288 288 288 288 287 288 288 289 290 290 290 290 290 290 290 290 290 291 291
293 294 293 293 293 293 293 293 292 292 291 290 289 288 288 288 288 288 288 288 287 287 286 286 287 288 288 288 288 289 289 289 289 289 289 289 290 290
292 292 292 292 292 292 291 291 290 288 288 288 288 289 289 289 288 288 288 287 286 286 286 286 286 286 286 286 286 287 287 288 289 289 289 289 289 290
290 290 290 290 290 290 290 289 289 289 289 288 289 289 288 288 287 287 286 285 285 285 285 285 285 286 286 286 286 287 288 288 288 289 289 289 289 289
288 288 286 285 285 285 285 286 287 287 287 287 288 287 286 286 286 286 285 285 285 285 285 285 285 286 286 286 286 287 287 288 288 288 289 289 289 289
286 286 285 285 284 286 286 286 287 286 286 286 286 286 285 285 285 285 285 285 285 285 285 285 285 285 285 285 285 286 286 287 288 288 288 288 288 288
285 284 285 285 286 286 286 286 286 286 285 285 284 284 285 285 285 286 285 284 284 284 284 284 285 285 284 285 285 285 286 285 285 286 287 287 287 287
284 284 284 285 285 286 285 284 284 284 283 284 284 284 284 284 284 284 283 283 283 283 284 284 283 283 283 283 283 283 283 283 284 284 285 286 286 286
284 283 283 284 283 283 283 283 283 284 284 284 284 283 283 284 284 284 284 283 283 283 283 283 283 282 281 282 282 282 281 282 282 282 282 283 284 285
283 283 283 283 282 282 282 283 284 284 283 282 283 283 284 284 283 283 283 283 282 282 282 281 281 281 281 281 281 281 281 281 281 281 282 283 283 284
282 282 282 281 281 282 282 283 282 282 282 282 283 283 283 282 282 281 281 282 282 282 282 281 282 282 282 281 281 282 282 282 282 282 282 283 283 283
282 281 281 281 281 282 282 282 282 282 282 282 282 282 282 281 281 281 281 281 282 282 282 283 283 283 283 283 282 282 282 282 282 283 284 284 284 284
282 280 280 281 282 282 282 282 282 282 282 281 281 281 280 280 280 280 280 281 281 281 282 283 283 283 283 284 283 283 283 283 283 284 284 284 285 285
280 280 280 281 281 282 281 281 281 281 281 281 280 279 279 279 280 280 280 280 281 281 282 283 283 283 284 284 284 284 284 284 285 284 284 284 284 284
279 280 281 281 281 281 281 281 281 280 280 280 280 280 279 279 280 280 280 280 280 281 282 283 283 284 284 284 284 285 285 285 284 285 284 284 285 285
279 279 280 280 280 280 280 280 280 279 279 279 279 279 279 279 279 279 279 279 280 281 282 283 283 283 283 283 284 284 285 285 285 285 285 285 285 285
279 279 280 280 280 280 280 279 279 279 279 279 279 279 279 279 279 279 280 280 281 281 281 281 282 283 284 284 284 284 285 285 285 285 285 286 285 285
278 278 279 279 279 279 279 279 279 278 279 279 279 279 279 279 279 279 279 280 280 280 280 280 281 282 283 284 284 285 285 286 286 286 286 286 286 286
278 278 278 278 279 279 279 278 278 278 279 278 278 279 279 279 279 279 279 279 280 280 280 281 282 282 283 285 286 286 286 286 286 286 286 286 286 285

GFSNE_925_thetae_069.txt.gz
Theta_e
323 324 324 322 319 316 314 313 313 304 299 296 297 297 298 299 298 297 297 295 293 293 294 295 296 296 295 295 294 294 294 294 294 295 296 296 297 298
318 319 320 317 312 309 308 307 307 306 302 296 295 296 297 297 296 295 294 293 293 293 295 295 294 293 293 293 293 293 293 293 294 295 295 295 296 297
314 313 311 308 306 304 303 303 303 304 298 293 293 294 293 294 292 294 292 291 291 292 292 291 291 291 291 292 291 292 292 292 293 293 294 294 294 295
303 303 302 301 300 299 299 298 298 298 297 292 292 291 293 292 291 290 291 292 290 288 289 290 290 291 290 290 291 291 291 291 292 292 292 293 293 293
298 298 296 296 296 295 296 296 296 296 297 294 291 291 290 291 290 290 288 288 288 288 289 288 288 288 289 290 291 291 290 290 291 291 291 291 291 292
294 294 294 294 294 294 295 294 293 292 292 292 290 289 289 288 288 288 288 288 287 287 287 286 287 288 288 288 288 288 288 288 289 290 290 290 290 290
292 292 292 292 291 291 291 291 290 289 288 288 288 288 288 288 288 288 287 287 286 286 285 286 286 286 286 286 286 286 287 289 289 290 290 290 290 290
291 291 291 290 290 289 289 289 289 289 288 288 289 288 288 287 287 287 286 285 284 285 285 285 286 286 286 286 286 287 288 288 289 289 290 290 290 290
289 288 288 286 285 285 286 286 287 287 288 287 288 287 286 286 285 285 285 285 285 285 285 284 285 285 286 286 286 286 287 288 288 289 289 289 289 289
285 285 285 285 286 286 286 286 286 286 286 286 286 285 285 285 285 285 285 285 285 284 284 284 285 285 285 286 285 285 286 287 287 287 287 288 288 288
284 285 285 285 286 287 285 286 286 285 285 285 285 284 285 285 285 285 285 284 283 283 283 283 284 283 284 285 285 285 285 284 284 285 285 286 286 287
284 284 285 285 285 285 284 284 283 283 283 284 284 284 284 284 284 284 284 283 283 282 283 283 283 282 282 282 283 283 283 282 283 282 283 284 284 285
283 283 283 284 283 283 283 282 283 284 284 283 283 283 283 284 284 284 284 283 283 283 282 282 282 282 281 281 282 282 282 282 282 283 282 283 283 284
282 282 282 282 282 282 282 283 284 284 282 282 282 283 283 283 283 283 282 282 282 282 281 282 281 281 281 281 281 282 282 282 283 283 283 283 283 284
283 283 282 281 281 281 282 283 282 282 282 282 282 282 282 282 282 281 281 281 281 282 282 282 282 282 282 282 282 282 282 282 282 283 283 283 284 284
282 281 281 281 282 282 282 282 282 282 282 281 281 281 281 281 281 281 281 281 281 281 281 282 283 283 283 282 282 283 283 283 283 283 283 283 284 284
282 280 280 281 281 282 282 281 281 282 282 281 281 280 280 280 280 280 280 280 280 280 280 281 282 283 283 283 283 283 283 283 283 284 284 284 284 284
281 279 280 281 281 281 281 281 281 281 281 280 280 280 279 280 280 280 280 280 280 280 280 280 281 282 283 283 283 283 283 283 284 284 284 283 283 284
280 279 279 280 281 281 280 280 280 280 279 279 279 279 279 279 279 279 280 280 280 280 280 280 281 281 283 282 283 283 283 284 284 284 284 284 284 284
279 279 279 280 280 280 280 280 279 279 279 279 279 279 279 279 279 279 279 279 279 280 280 281 281 282 281 282 282 283 283 284 284 284 284 284 284 285
279 278 278 279 279 279 279 279 279 279 279 279 279 279 279 279 279 279 279 280 281 281 280 280 280 281 281 281 281 282 283 284 284 285 285 285 285 286
279 278 278 278 278 279 279 279 278 278 278 278 278 279 278 278 278 278 278 278 279 279 279 279 280 280 280 281 282 282 283 284 285 285 285 285 285 286
278 278 278 278 277 277 277 278 278 278 278 278 278 278 278 278 278 278 278 278 278 279 279 279 280 280 281 282 282 283 284 285 284 284 284 285 284 285

GFSNE_925_thetae_072.txt.gz
Theta_e
318 318 318 320 320 318 316 315 313 311 302 299 299 299 298 297 298 298 298 299 298 297 297 297 297 297 298 298 297 297 296 296 295 295 296 297 297 298
313 313 314 314 313 312 310 309 309 307 304 301 297 297 295 296 297 297 298 297 296 295 295 295 296 297 296 295 294 294 294 294 294 295 295 296 296 297
309 308 308 305 304 304 303 303 303 303 301 295 296 296 295 295 296 294 295 295 293 292 293 293 294 293 292 292 293 292 293 293 293 294 294 294 295 295
304 303 301 300 300 299 300 299 299 298 298 294 292 292 292 292 292 293 292 291 291 292 291 291 291 291 291 291 291 291 292 292 292 292 292 293 293 294
298 299 298 298 297 296 296 296 296 295 295 294 292 291 291 291 290 290 291 291 288 288 288 290 290 289 289 289 290 291 291 291 291 291 291 292 292 292
294 294 294 294 294 294 294 293 293 293 293 292 291 290 290 290 289 288 287 288 288 287 287 287 287 287 288 289 289 289 288 288 289 290 290 291 291 291
292 292 292 292 292 292 292 290 290 289 289 289 288 288 288 288 288 288 287 287 287 286 286 285 286 286 286 286 286 286 286 288 289 290 290 291 291 291
291 291 291 290 290 290 290 289 289 289 288 288 288 288 287 287 287 287 286 286 285 285 285 285 285 286 286 286 286 286 288 288 289 289 290 290 290 290
287 286 285 285 285 286 286 287 287 288 287 287 287 287 286 286 286 285 285 285 284 285 285 284 285 286 286 286 285 286 287 288 288 289 289 289 289 289
285 284 284 286 287 286 286 286 286 286 286 286 285 285 285 285 285 285 285 285 284 284 284 284 284 285 285 285 285 285 287 287 286 286 286 287 287 287
284 285 284 285 287 286 285 285 285 285 284 285 285 285 285 285 285 285 285 285 283 283 283 283 283 283 283 284 284 285 285 284 284 284 285 285 285 286
284 283 284 285 285 284 284 283 283 283 283 283 284 284 283 284 284 284 283 283 283 282 283 283 282 281 281 283 283 284 284 283 283 283 284 284 284 284
283 283 283 284 283 283 283 282 283 284 284 283 283 282 283 283 284 283 283 283 282 282 282 282 282 282 282 282 282 282 282 283 283 283 283 283 283 284
282 282 282 282 282 283 282 283 284 283 282 282 282 283 283 283 282 282 282 282 281 281 282 281 281 281 281 281 281 282 282 283 283 283 283 284 284 284
283 283 283 282 281 281 282 283 283 282 281 281 281 281 282 282 281 281 281 281 281 281 281 281 282 282 282 281 281 281 282 282 282 283 283 284 284 284
282 282 280 281 281 282 282 282 281 281 282 281 281 281 280 280 280 280 280 280 280 280 281 281 281 281 280 281 282 281 282 282 283 283 283 283 284 284
283 280 280 281 281 281 281 281 281 281 281 281 280 280 280 280 280 280 280 280 280 280 280 280 280 281 281 282 282 282 282 282 282 283 283 283 283 283
282 280 279 280 281 281 281 281 280 281 280 280 280 280 280 280 280 280 280 280 280 280 280 280 280 280 280 281 282 282 282 283 283 283 283 282 283 283
281 280 279 279 279 280 280 280 280 280 279 279 279 279 279 279 280 279 279 279 279 279 279 280 280 280 279 280 282 282 282 283 283 282 282 283 283 283
279 279 279 279 279 279 280 280 279 279 279 279 279 279 279 279 279 279 279 278 278 278 279 280 280 280 280 280 280 280 281 281 282 282 282 283 283 284
281 279 279 278 278 278 279 279 279 279 279 279 279 278 279 279 278 278 278 279 280 280 279 279 280 280 280 280 279 280 281 281 282 282 283 283 284 284
280 279 279 278 278 278 278 278 278 278 278 278 278 278 278 278 278 278 278 278 278 278 278 278 279 279 279 278 279 281 281 282 282 283 283 284 284 285
279 278 278 278 278 277 277 277 277 277 277 277 277 277 277 277 277 277 277 277 278 278 278 278 279 279 279 280 281 281 281 282 282 282 284 284 284 284

GFSNE_925_thetae_075.txt.gz
Theta_e
317 315 314 312 313 314 314 313 314 314 307 303 303 302 302 302 303 303 303 303 302 301 300 300 301 301 300 299 299 299 299 298 297 297 297 297 298 298
309 309 308 308 309 310 310 308 307 307 306 301 299 299 298 298 299 300 300 300 299 299 299 297 296 297 297 298 297 297 296 296 296 295 296 297 297 297
306 307 307 307 307 305 304 304 303 302 300 297 297 296 295 295 296 297 297 297 297 296 295 295 295 295 295 295 294 294 294 294 294 294 295 295 295 296
301 302 300 300 300 300 299 299 299 298 299 296 293 293 292 292 293 293 293 293 293 292 293 292 293 292 293 293 292 292 292 292 292 292 293 293 294 294
297 298 297 297 297 296 296 296 296 296 296 295 292 292 291 291 291 291 291 290 291 291 290 290 291 291 290 290 290 291 292 292 291 291 292 292 292 293
294 294 294 294 294 294 294 293 293 293 292 292 291 290 290 290 290 290 289 288 288 287 287 287 287 287 288 288 289 290 290 289 289 290 290 291 291 291
292 292 292 292 292 291 291 291 291 290 290 290 289 288 288 288 287 287 287 287 287 286 286 286 285 285 285 286 286 286 286 287 289 290 291 291 291 291
291 290 289 289 288 290 290 289 289 288 288 288 288 287 286 286 286 286 286 286 285 284 284 284 285 285 285 286 286 286 287 289 289 289 290 290 290 290
285 285 285 286 286 285 286 286 287 287 287 286 286 286 286 285 285 285 285 284 284 284 284 284 284 285 285 285 285 286 286 287 288 289 289 288 289 289
284 284 285 287 288 286 285 286 285 285 286 285 285 284 284 285 285 285 285 284 284 284 283 283 284 285 285 285 285 286 287 287 287 286 286 287 287 287
284 285 284 285 286 286 284 284 284 284 284 284 285 285 285 286 285 285 284 284 283 283 283 283 283 283 284 284 284 286 285 285 285 285 285 286 286 286
283 283 284 285 285 284 283 282 283 283 283 283 283 283 283 283 284 284 284 283 283 282 282 282 282 281 281 283 283 283 284 284 284 283 284 284 285 285
282 282 282 283 283 283 283 283 284 284 284 283 282 282 283 283 283 283 283 283 282 282 282 282 282 282 281 282 282 283 283 283 283 283 283 283 283 284
282 282 283 283 282 283 283 283 284 283 282 282 282 282 283 282 282 281 281 281 281 281 281 282 281 281 281 281 281 282 282 282 282 283 283 284 284 284
282 283 283 283 282 281 282 283 283 282 281 282 281 281 281 281 281 280 280 280 280 280 281 281 281 281 282 281 281 281 281 282 282 283 283 283 284 284
282 282 280 281 281 282 282 282 282 281 281 281 281 280 280 280 280 280 280 280 280 280 280 280 280 280 280 280 280 280 280 281 282 282 282 283 283 283
283 282 280 280 281 281 281 281 281 281 281 281 280 280 280 280 280 280 280 280 280 280 280 280 280 280 280 280 280 280 281 281 281 282 282 282 282 282
283 282 280 279 280 280 281 281 281 280 280 280 280 280 280 280 279 280 280 280 279 279 279 279 279 279 279 280 281 281 280 281 282 283 282 281 281 282
281 281 280 279 279 279 280 280 280 280 280 279 279 279 279 279 279 279 279 279 279 278 279 279 279 279 278 278 280 281 282 282 282 281 281 281 282 282
282 280 279 279 278 278 279 279 279 279 279 279 279 279 279 279 279 279 279 278 278 278 279 279 280 279 278 278 279 280 280 280 280 280 280 281 282 282
282 281 281 280 279 278 278 278 278 279 279 279 279 279 279 278 278 278 278 278 279 279 278 278 280 279 279 279 278 278 279 280 280 281 281 281 282 282
279 279 279 279 279 278 278 278 277 277 278 278 278 278 278 278 278 277 277 277 277 277 277 278 279 279 278 277 278 278 279 280 281 281 282 282 282 283
280 279 279 279 278 278 278 277 277 277 277 277 277 277 277 277 277 276 276 276 276 277 277 277 278 278 278 278 279 280 280 280 281 281 282 282 283 284

GFSNE_925_thetae_078.txt.gz
Theta_e
316 313 313 313 312 312 311 312 311 311 308 303 304 304 304 303 302 302 303 304 305 305 305 306 303 302 302 302 301 301 301 300 299 299 300 299 299 299
307 307 308 307 308 308 308 308 308 307 306 302 300 300 299 298 299 300 301 302 303 303 301 301 299 300 299 298 299 299 298 298 298 298 298 297 298 298
303 303 304 303 304 304 304 304 304 304 301 297 297 296 297 296 297 298 299 300 299 299 298 297 297 297 297 297 296 295 296 296 296 296 296 296 296 297
299 300 299 300 299 300 300 300 299 299 299 296 293 293 294 294 294 294 295 295 295 295 295 294 294 294 294 294 294 294 293 293 293 293 293 294 294 295
297 297 297 297 296 296 296 295 295 295 296 295 292 292 292 292 292 292 292 292 292 292 292 292 292 292 293 292 291 291 291 292 292 292 292 292 293 293
294 294 294 294 294 294 294 294 294 294 293 293 291 290 290 290 290 290 290 289 288 287 287 287 288 289 289 289 289 290 290 290 290 290 290 291 291 291
293 293 292 292 292 291 291 290 290 290 289 289 288 288 288 287 287 287 287 286 286 286 286 286 286 286 285 285 285 286 286 287 288 289 291 291 291 291
291 289 289 288 289 289 289 290 289 287 287 288 287 286 285 286 286 286 285 285 285 284 284 284 284 285 285 285 285 286 286 288 289 290 290 290 290 290
285 285 286 287 285 285 286 286 286 287 286 285 285 285 285 285 285 285 285 284 284 284 284 284 284 284 285 285 285 285 286 287 288 289 289 289 289 289
284 284 286 287 287 285 284 285 285 286 285 285 284 284 284 284 284 284 284 284 284 284 283 283 283 284 285 285 285 285 287 287 287 287 287 287 287 287
284 285 284 285 286 285 283 283 284 284 284 284 284 284 284 284 285 284 283 284 283 282 282 283 282 283 283 284 284 286 285 285 285 285 286 286 286 286
283 283 285 285 285 284 283 282 282 283 283 283 283 283 283 283 283 283 283 283 282 282 282 282 282 281 281 282 283 283 284 284 284 284 284 284 285 285
282 282 282 284 284 284 283 283 284 284 283 282 282 282 282 283 283 283 282 282 281 282 282 282 282 282 281 281 282 282 282 283 284 284 284 284 283 284
282 282 283 283 283 283 283 283 285 284 282 282 282 282 282 282 282 281 281 280 281 281 281 281 281 281 281 281 281 282 281 282 283 283 282 283 284 284
282 282 283 282 282 281 282 284 283 282 282 281 281 281 281 281 281 280 280 280 280 280 280 280 280 280 281 281 281 281 281 280 280 282 283 283 284 284
282 283 281 281 281 281 282 282 282 281 281 281 281 281 280 280 280 280 280 280 279 280 280 280 280 280 280 280 280 279 279 280 281 281 281 282 283 283
284 283 281 280 280 281 281 281 281 281 281 281 281 280 280 280 280 280 280 280 280 280 280 280 280 279 279 279 279 279 279 280 280 281 281 282 282 283
283 283 282 280 280 280 280 281 281 281 280 280 280 280 280 279 279 279 280 280 279 279 279 279 279 279 279 280 280 280 280 281 280 281 282 280 281 282
283 282 280 280 280 279 279 279 280 280 280 279 280 279 279 279 279 279 279 279 279 278 278 279 279 278 275 277 279 281 281 281 281 281 281 280 280 282
283 282 282 281 280 279 278 278 278 279 279 279 279 279 279 279 279 279 278 278 278 278 278 279 279 279 277 277 279 279 279 280 280 280 280 280 280 281
282 282 281 281 281 280 279 278 278 278 278 278 279 279 279 278 278 278 278 278 279 279 278 278 279 279 279 278 277 278 279 279 280 280 280 280 281 281
283 282 280 280 279 279 279 278 278 278 277 277 278 278 278 278 277 277 277 277 277 276 277 278 278 278 277 277 277 277 278 279 280 280 281 281 282 282
281 281 281 280 280 279 279 278 278 277 277 277 277 277 277 277 277 277 277 276 276 275 275 276 277 277 277 277 278 279 279 279 279 279 280 281 282 282

GFSNE_925_thetae_081.txt.gz
Theta_e
316 315 314 313 312 312 311 311 312 313 311 304 305 304 304 304 303 303 303 304 306 306 307 308 307 304 303 303 302 301 302 302 302 301 300 300 300 300
309 308 308 308 307 308 307 307 307 309 310 302 301 301 300 299 299 300 301 302 303 302 303 303 303 301 300 299 299 299 299 299 299 299 299 299 299 300
303 304 304 304 305 305 304 304 303 304 305 297 297 297 297 296 297 298 299 300 301 301 300 301 300 300 299 298 297 297 297 297 297 297 298 298 298 298
301 301 301 300 300 300 300 300 299 299 300 297 294 294 294 293 294 295 296 296 297 297 298 297 297 296 296 296 296 295 295 294 294 294 294 295 295 295
298 298 298 297 297 297 296 297 296 297 297 296 292 292 293 292 291 292 293 293 293 293 293 293 293 293 293 294 293 292 292 292 292 293 293 293 293 294
295 295 295 295 294 294 294 294 294 294 294 293 292 290 290 290 289 290 289 289 288 288 288 288 289 290 290 291 291 290 290 291 291 291 291 291 291 292
293 293 293 293 292 292 292 291 291 291 290 290 289 289 288 287 287 287 287 286 286 286 286 286 286 286 286 286 286 286 286 287 289 290 290 291 291 291
291 291 291 290 290 290 290 289 288 286 287 287 287 287 285 285 285 285 285 286 287 285 284 285 284 284 285 285 285 285 286 287 289 290 290 290 291 291
286 286 286 286 285 285 285 285 287 287 285 285 285 285 285 285 285 285 284 284 285 284 284 285 284 284 285 285 285 285 286 287 289 289 290 290 289 289
284 286 287 287 287 284 284 284 285 286 285 285 284 284 285 285 284 284 284 284 284 283 283 284 283 284 284 285 285 285 287 288 287 287 288 288 288 288
285 284 284 285 286 284 283 283 284 284 284 284 284 284 284 285 285 284 284 284 284 283 282 283 283 283 283 283 284 286 286 285 285 285 286 286 286 287
283 285 286 285 285 284 282 282 283 283 283 283 283 283 283 283 283 283 283 283 283 283 282 283 282 282 283 283 283 284 283 284 284 284 284 284 285 286
282 282 282 284 284 284 282 284 284 284 283 282 282 283 283 283 283 283 282 282 282 282 282 282 282 282 282 282 282 282 282 282 283 283 284 284 283 284
282 282 283 283 283 283 283 284 285 284 282 282 282 282 282 282 282 281 281 281 280 280 281 281 281 281 282 282 282 282 282 282 282 283 283 283 283 284
282 282 284 282 283 282 282 284 284 283 282 282 282 281 281 281 281 280 280 280 280 280 280 280 280 281 281 281 282 282 282 282 281 281 282 282 283 283
282 282 282 281 281 282 282 283 282 282 282 282 282 281 280 280 281 280 280 280 280 280 280 280 280 280 280 281 281 281 281 280 282 281 281 281 282 283
283 283 282 280 280 281 281 281 281 281 281 281 281 281 281 281 281 280 280 280 280 280 280 280 280 279 279 279 279 280 280 280 280 281 281 281 282 282
284 283 282 281 280 280 280 280 281 281 281 281 280 280 280 280 280 280 280 280 280 280 280 279 279 279 279 281 281 280 281 281 281 281 281 281 281 282
284 284 283 281 280 280 280 279 279 279 280 280 280 280 279 280 280 280 279 279 279 279 278 278 278 277 279 281 280 280 281 281 281 281 281 281 281 282
284 284 283 282 281 281 280 279 279 278 279 279 279 279 279 279 279 279 279 278 278 278 278 278 278 278 278 280 280 280 279 280 280 281 281 281 280 280
284 283 283 282 281 281 280 280 280 279 278 278 278 278 279 279 278 279 278 278 279 279 279 279 279 278 279 278 277 278 279 279 279 280 280 280 280 281
284 284 283 283 282 280 280 279 279 279 278 278 278 277 277 278 278 278 278 278 278 277 277 277 277 277 276 276 278 278 279 279 279 279 280 280 281 282
284 283 282 282 281 281 280 279 279 279 278 278 278 277 277 277 276 276 277 277 277 277 276 276 277 277 276 276 277 278 279 279 279 280 280 281 281 281

GFSNE_925_thetae_084.txt.gz
Theta_e
318 316 316 315 314 313 313 312 314 315 314 309 308 301 302 302 300 302 302 304 305 306 306 307 309 307 306 305 305 305 305 303 303 302 301 301 301 301
312 309 308 309 309 307 308 309 309 311 312 304 300 299 300 298 299 300 301 302 302 301 301 303 303 303 302 302 301 301 301 300 300 300 300 300 300 300
305 305 304 304 305 304 304 304 304 305 308 298 298 297 296 296 297 298 299 299 300 299 299 300 299 299 298 298 298 298 298 298 298 298 298 299 299 300
302 302 301 301 300 300 300 300 300 300 303 301 296 295 294 294 294 295 295 296 296 297 297 297 297 296 296 296 296 296 296 296 295 296 296 296 296 297
299 299 298 298 298 297 297 298 298 298 299 301 296 294 293 293 293 293 293 293 292 292 293 294 294 294 294 294 294 293 293 293 293 293 293 294 294 294
296 296 295 296 295 296 295 295 295 297 297 298 296 294 293 292 292 293 293 291 290 288 289 289 289 289 291 292 292 291 291 291 292 292 292 292 292 292
293 293 293 293 293 293 293 293 294 294 295 295 294 294 292 291 291 289 290 289 288 287 288 287 287 287 287 287 287 286 286 287 288 290 291 291 291 292
293 293 292 291 292 291 290 290 289 290 290 291 290 290 289 288 288 288 288 289 290 286 286 287 286 286 287 286 286 285 286 287 288 289 290 291 291 291
289 288 287 287 287 287 286 286 288 286 286 288 288 288 287 287 286 287 287 287 287 286 285 287 286 287 286 285 285 286 286 287 288 289 290 290 290 290
287 288 288 288 286 285 286 286 287 287 286 286 286 286 286 286 286 286 286 286 286 285 285 287 286 287 286 286 285 285 286 288 288 288 288 288 289 288
285 286 286 287 287 284 285 285 285 285 285 284 285 284 284 285 285 286 287 287 287 286 284 285 286 285 285 285 285 287 287 287 286 286 287 287 287 287
285 286 285 286 286 284 284 285 285 285 285 284 284 283 284 284 285 284 285 286 286 287 284 285 285 285 287 285 285 285 285 285 284 285 285 285 285 286
284 284 284 285 285 285 283 285 285 285 284 283 284 284 284 284 284 283 283 283 284 285 284 282 283 283 284 285 285 285 285 284 284 284 284 284 284 284
284 284 284 283 284 284 284 284 286 284 283 284 284 284 284 284 283 283 282 282 282 282 282 281 282 282 282 283 284 285 285 284 284 283 283 283 284 284
283 283 283 283 284 283 283 285 285 284 283 283 284 284 284 283 282 281 281 281 281 281 280 280 280 281 281 282 282 283 283 284 283 283 283 283 284 284
283 284 284 282 282 282 282 284 284 283 283 284 284 283 283 282 282 282 282 282 281 281 281 280 280 280 281 281 281 282 282 283 283 283 283 283 283 283
283 283 283 281 282 282 282 282 282 282 283 283 283 283 283 283 282 282 281 281 281 281 282 282 281 280 280 280 281 282 283 283 283 283 282 282 282 283
284 284 284 283 282 282 282 282 282 282 282 283 283 283 283 283 282 281 281 281 281 281 281 281 281 281 282 282 282 282 282 283 283 283 282 282 282 283
286 285 285 284 283 282 281 282 282 282 281 282 282 282 282 282 281 281 281 280 281 281 281 281 280 280 281 283 284 282 282 283 283 283 283 283 283 283
286 285 285 284 283 282 281 281 281 281 281 280 281 281 281 281 281 281 281 281 280 280 280 280 280 279 280 281 281 281 281 281 281 282 282 283 282 282
286 285 284 284 283 282 282 281 281 281 280 280 280 280 280 280 280 280 280 280 280 280 280 281 281 281 280 279 278 279 281 281 281 280 281 282 281 282
285 284 284 283 283 283 282 281 280 280 280 280 279 279 279 279 280 279 280 280 280 280 280 280 279 278 278 278 279 279 280 281 281 280 280 280 281 282
285 285 284 284 284 283 282 281 280 280 279 279 279 278 278 278 278 278 279 279 279 279 279 279 279 279 279 278 278 278 279 279 281 281 281 282 282 282

GFSNE_925_thetae_087.txt.gz
Theta_e
320 319 319 318 318 315 315 315 315 315 315 308 307 302 300 300 300 301 302 304 304 304 305 306 307 307 307 307 307 307 307 307 306 305 304 303 303 302
314 314 312 312 311 310 310 311 311 312 313 306 301 299 298 298 298 300 300 301 301 300 301 303 303 304 303 303 303 303 303 302 301 302 302 301 301 301
308 308 307 307 307 306 306 307 307 307 308 301 300 297 296 297 296 298 299 300 299 299 299 299 299 299 300 299 299 298 299 299 299 299 300 300 301 301
304 304 303 303 303 302 303 302 302 303 305 302 298 297 295 295 295 296 296 295 295 297 296 296 296 296 296 296 296 296 296 296 296 296 296 297 297 297
301 302 301 301 300 300 300 300 300 300 301 302 297 296 295 295 295 295 294 294 291 291 291 292 293 294 294 295 294 293 293 293 293 293 294 294 294 295
298 298 298 298 297 297 297 297 298 299 299 299 298 296 295 294 294 293 294 292 291 290 290 289 288 288 289 291 292 292 292 291 292 292 292 292 292 292
295 295 294 294 294 295 295 295 296 296 297 298 297 295 294 293 292 290 290 290 290 288 288 288 287 287 288 287 287 287 287 287 287 289 290 291 291 292
293 293 293 293 293 292 292 292 291 292 292 293 293 292 290 289 289 289 289 289 290 288 286 287 287 287 287 287 286 285 285 286 288 289 290 291 291 291
292 291 289 290 288 287 286 289 286 286 289 289 289 289 288 288 287 286 288 287 288 287 285 287 287 287 287 286 287 286 286 287 287 289 290 290 290 290
288 289 288 288 286 286 287 287 288 288 287 287 287 287 287 286 287 286 286 286 287 286 285 287 287 287 287 287 286 286 286 288 288 288 288 288 289 289
286 287 288 288 287 284 286 286 287 286 285 285 286 285 284 284 286 286 287 287 288 287 285 285 287 286 286 286 286 287 287 287 287 286 287 287 287 287
286 286 286 287 287 284 285 286 286 286 285 284 284 284 284 285 285 285 285 286 287 288 285 284 284 285 285 287 285 285 286 286 285 285 286 286 286 286
285 285 285 285 285 285 284 285 286 285 285 284 284 284 285 285 285 284 284 284 284 285 284 283 283 283 284 285 285 285 285 285 285 285 285 285 286 286
285 284 284 284 284 285 284 285 286 285 284 284 285 285 285 285 285 284 283 283 283 282 283 282 282 282 283 283 283 285 285 285 284 284 284 283 284 285
284 284 284 284 284 285 285 284 286 285 284 284 285 285 285 285 284 282 282 282 281 281 281 281 281 281 281 282 282 282 283 284 283 283 283 283 283 284
284 283 284 284 284 285 284 284 285 285 284 284 285 285 284 283 282 282 282 282 282 282 282 281 281 280 281 281 281 282 282 282 283 283 283 283 283 283
286 284 284 283 283 283 283 284 284 284 283 283 284 284 284 284 283 283 282 281 281 281 281 282 282 281 281 280 281 281 282 282 283 283 283 282 282 282
285 284 284 284 283 283 283 283 283 283 283 283 283 284 284 284 283 283 281 281 281 281 281 281 281 281 281 282 282 282 282 282 283 283 283 282 282 283
285 285 285 285 284 284 283 282 283 283 282 283 283 283 283 283 283 282 282 281 281 281 281 281 281 280 280 281 282 284 283 283 282 282 283 283 283 283
286 286 286 286 285 284 283 282 282 282 282 281 281 281 282 282 282 282 282 282 281 281 281 281 280 280 280 280 281 281 281 282 281 281 282 282 282 282
287 287 287 286 285 285 284 283 282 282 282 281 281 281 281 281 281 281 281 282 282 281 281 280 281 282 281 280 280 279 279 280 281 281 281 281 281 281
286 286 286 286 285 285 284 283 282 282 282 282 281 280 280 280 280 281 281 281 280 281 281 280 280 280 279 279 278 279 279 279 280 281 281 281 281 281
286 286 285 285 285 284 284 283 283 282 281 281 281 281 280 280 280 280 280 280 280 280 280 280 280 279 279 279 279 279 279 279 279 280 281 281 282 282

GFSNE_925_thetae_090.txt.gz
Theta_e
318 320 321 321 320 320 319 318 316 311 309 307 304 302 302 302 300 301 302 303 303 304 304 305 306 307 309 310 310 309 308 308 307 306 305 306 306 304
315 315 316 315 315 313 313 312 313 313 311 306 302 301 300 299 298 299 300 301 301 301 302 302 303 304 304 305 306 306 305 305 303 303 303 303 303 303
310 310 310 310 309 308 308 308 309 309 308 301 300 299 297 297 297 297 299 299 299 299 301 301 301 301 300 300 300 300 300 300 300 300 300 301 301 302
306 306 306 305 306 304 304 305 305 305 306 302 299 297 296 295 295 296 295 295 295 294 296 296 298 298 297 297 297 297 297 297 297 297 297 297 298 298
302 303 302 302 302 301 301 301 301 301 303 302 298 296 295 295 295 295 294 292 291 291 292 292 294 294 295 295 294 294 294 294 294 294 295 295 295 296
300 300 299 300 300 299 300 299 299 300 300 300 298 296 295 294 293 293 292 291 291 289 289 288 288 288 289 291 293 293 293 292 292 292 291 291 292 292
297 297 297 297 296 296 296 296 297 297 298 298 297 295 294 292 292 290 290 289 289 288 287 288 287 287 287 287 287 287 287 288 288 288 289 290 291 291
295 294 293 293 293 294 294 294 294 295 295 295 294 293 290 289 289 289 288 288 289 287 287 286 287 287 287 287 286 285 285 286 287 288 289 290 291 291
294 293 292 291 289 288 289 287 287 289 289 289 289 289 288 288 288 287 287 287 287 286 285 287 287 287 287 287 287 286 286 286 287 289 290 290 290 290
291 289 288 287 287 287 287 287 287 286 287 288 288 287 287 286 286 286 286 286 287 286 286 286 287 287 287 286 286 286 287 288 288 289 289 288 289 289
288 288 288 289 286 286 286 287 287 286 286 287 287 286 285 286 286 286 287 287 288 286 285 285 286 286 286 286 286 286 287 287 287 287 287 287 288 288
286 286 287 287 287 284 285 286 286 286 285 284 284 283 284 285 285 285 286 286 286 286 285 284 284 284 284 286 286 285 286 286 286 286 286 286 287 287
286 286 286 286 286 284 285 285 286 285 286 285 285 284 285 285 284 284 284 284 284 284 284 284 283 283 284 284 284 284 285 285 285 285 285 285 285 286
285 285 284 285 285 285 284 286 286 286 284 284 285 285 285 285 285 284 284 283 283 283 283 282 281 282 282 282 282 284 284 284 284 284 284 283 284 284
285 284 285 285 284 285 286 285 287 285 284 284 284 285 285 285 285 284 282 282 282 281 281 281 281 281 281 281 282 282 282 283 282 283 283 283 283 283
285 284 284 284 284 284 285 285 285 285 285 284 284 285 285 285 284 283 282 282 282 282 282 282 281 281 280 280 280 281 281 281 283 282 282 283 283 282
287 285 284 285 284 283 284 284 283 284 285 284 284 284 284 284 283 283 282 282 281 281 281 282 282 282 281 281 280 281 281 281 282 282 283 283 283 282
287 285 284 284 284 283 283 283 283 284 284 283 283 283 284 284 284 283 283 282 281 281 281 281 281 281 281 281 281 281 280 282 283 282 283 282 282 283
286 285 284 284 284 284 283 283 283 283 283 283 283 283 283 283 283 283 283 282 282 281 281 281 281 281 280 280 280 281 282 283 283 282 282 282 282 282
286 285 285 285 285 285 285 284 283 283 283 283 282 283 283 283 283 283 283 282 282 282 281 280 281 281 280 280 280 280 280 281 281 281 281 280 281 281
286 286 286 285 285 286 286 285 284 283 282 282 282 282 281 281 282 282 282 282 282 282 281 281 281 281 280 280 280 280 280 280 279 280 280 280 280 280
286 286 285 286 286 286 286 286 285 284 283 282 282 282 281 281 281 281 281 281 281 281 282 281 281 280 280 280 279 279 278 279 279 279 279 280 281 281
287 286 286 286 286 286 286 286 285 284 283 283 282 282 282 281 281 280 280 280 280 280 280 280 280 280 280 279 279 279 279 279 279 279 279 280 280 281

GFSNE_925_thetae_093.txt.gz
Theta_e
315 318 318 320 321 321 320 321 320 315 313 304 302 302 301 300 300 301 302 302 303 303 304 305 306 308 310 311 312 311 310 310 309 308 307 307 307 306
312 314 316 316 317 317 316 316 316 313 309 306 302 301 300 299 298 299 300 301 301 302 302 302 303 304 304 305 307 308 307 307 306 305 304 304 304 303
309 311 312 312 312 311 311 311 311 311 308 301 301 300 299 298 297 298 299 299 300 300 300 300 301 302 301 301 301 302 302 302 302 302 302 302 302 302
308 308 308 307 307 307 308 308 307 307 307 301 299 298 297 296 295 296 296 296 295 296 297 297 299 298 298 298 298 298 298 298 298 298 298 298 299 299
304 304 304 304 304 304 304 303 304 303 304 303 298 297 296 295 295 294 293 291 290 291 291 291 293 295 295 295 295 295 295 295 295 295 296 296 297 297
301 302 301 301 301 301 301 300 300 301 302 301 299 297 295 294 294 293 292 290 290 289 289 288 288 288 289 292 293 293 293 293 293 293 292 293 293 294
299 299 299 298 299 298 299 298 299 299 299 298 297 294 293 292 292 290 290 289 288 288 287 287 287 286 287 287 286 287 287 289 289 289 289 289 289 289
297 296 296 295 295 295 295 295 297 297 297 297 295 294 290 290 289 289 289 288 288 287 286 286 286 286 287 286 286 286 285 285 286 286 287 289 291 291
295 294 294 293 292 292 291 292 292 293 294 295 294 291 289 289 288 287 287 287 287 286 285 286 287 287 287 286 286 286 286 286 287 288 290 290 290 290
293 293 292 290 287 287 287 286 286 288 288 289 289 289 288 287 286 286 286 286 286 286 285 287 287 286 286 286 286 287 288 287 288 288 289 288 289 289
289 289 288 287 287 287 287 288 287 287 287 287 287 287 287 286 286 285 286 287 286 285 285 285 286 286 285 286 286 287 287 287 287 287 287 287 288 288
288 288 288 288 287 286 286 287 286 285 285 285 284 285 284 286 286 286 286 287 287 286 285 285 284 284 285 286 285 285 285 286 286 286 286 286 287 287
286 286 287 288 288 285 285 286 286 286 285 285 285 285 285 285 284 285 285 285 286 285 284 284 283 283 283 283 283 284 284 285 285 285 285 285 285 285
285 285 286 287 286 286 285 286 287 286 285 285 285 285 285 285 285 285 284 284 283 283 283 283 282 282 282 282 282 284 284 283 283 284 283 283 283 283
285 285 284 286 286 286 286 286 287 286 285 284 284 285 285 285 285 285 284 283 282 282 282 281 281 281 281 281 281 281 281 282 283 283 283 282 283 282
285 285 285 286 285 285 285 287 286 286 285 284 284 284 285 285 284 284 283 282 282 282 282 282 282 281 281 280 280 280 280 280 282 283 282 282 282 282
286 285 284 284 285 284 285 285 285 285 285 285 284 284 285 285 284 283 283 282 282 281 281 281 281 282 282 281 281 281 280 280 281 282 282 282 282 283
289 287 285 284 284 284 283 284 284 283 284 285 285 284 284 284 284 284 283 283 282 282 281 281 281 281 281 281 281 280 280 280 283 283 282 282 282 282
288 287 287 285 284 284 284 283 283 283 283 284 284 283 283 283 284 284 284 283 283 282 282 281 281 281 280 279 280 281 281 281 282 282 282 282 282 281
288 287 286 286 285 284 284 284 284 283 283 283 283 283 283 283 283 283 283 283 283 283 282 281 281 280 281 279 280 280 280 280 280 280 280 280 280 281
286 287 286 286 286 285 284 285 285 285 284 283 283 282 282 282 283 283 282 282 282 282 281 281 282 281 281 280 279 280 280 280 280 280 279 279 279 280
286 286 285 285 285 285 285 285 286 286 285 284 283 282 282 282 282 282 281 281 281 282 282 282 282 281 281 280 280 279 279 279 279 279 279 280 279 280
288 287 287 286 286 285 285 285 286 286 286 285 284 283 283 282 282 281 281 281 281 281 281 280 280 280 280 280 280 280 279 279 279 279 279 279 280 280

GFSNE_925_thetae_096.txt.gz
Theta_e
315 314 316 317 317 318 320 321 320 318 313 303 302 302 302 303 301 301 302 302 302 303 304 304 306 307 309 309 312 316 315 314 313 312 311 309 309 308
313 312 313 314 315 316 317 318 318 316 311 305 302 301 302 301 299 299 300 301 301 302 301 302 302 303 305 306 307 308 308 308 308 307 306 306 305 305
310 310 311 312 313 313 313 313 313 313 308 301 301 300 299 299 298 298 299 300 300 300 300 301 301 301 300 302 303 304 305 305 305 304 303 303 302 302
308 308 308 308 309 309 309 309 309 309 308 301 299 298 298 297 296 296 297 297 297 297 298 299 299 300 299 298 298 299 300 300 300 300 300 300 301 301
305 305 305 305 305 305 306 306 306 306 305 304 298 298 296 296 295 295 293 292 293 292 292 292 294 295 296 296 296 296 296 296 296 297 298 298 298 298
302 302 302 302 301 301 302 302 302 303 303 302 299 297 296 295 294 294 291 290 290 290 289 289 289 289 291 293 294 294 294 294 294 294 294 294 295 296
299 300 300 300 300 299 300 300 300 300 301 301 299 296 294 293 293 292 291 289 288 288 288 287 287 287 287 287 286 287 288 291 291 291 290 289 288 288
298 297 297 298 297 297 297 297 298 299 299 298 296 294 293 293 292 290 290 288 288 287 286 287 286 286 286 286 286 286 285 285 286 286 287 288 289 291
296 296 295 294 295 294 293 294 294 296 298 298 297 295 292 291 290 289 288 288 288 286 285 286 286 286 287 287 286 286 286 286 287 288 289 289 290 290
294 294 294 293 291 291 289 290 290 291 291 294 294 293 290 289 288 288 287 287 286 285 285 287 286 286 286 286 286 287 288 286 288 288 289 289 289 289
293 292 291 290 288 287 287 286 287 287 287 288 288 288 288 287 286 286 286 286 286 285 285 285 286 286 286 286 286 288 287 287 287 287 287 287 287 288
290 289 288 288 287 289 287 287 287 287 287 287 287 287 287 286 286 286 286 287 286 285 285 285 285 284 285 286 285 285 286 286 286 286 287 287 287 287
287 287 288 288 289 287 286 286 286 285 284 284 284 284 285 286 285 285 286 285 287 286 285 285 283 283 283 284 284 284 284 285 285 285 285 285 285 285
286 286 286 287 288 287 286 285 286 286 285 285 285 285 285 285 285 285 285 284 284 284 285 284 283 283 282 282 282 283 283 284 283 284 284 283 284 284
285 285 285 286 287 287 287 287 288 286 285 284 284 285 285 285 285 285 284 284 283 283 283 282 282 282 281 281 281 281 281 283 283 283 283 282 282 282
286 285 285 285 286 286 286 287 287 287 285 285 285 285 285 285 285 285 284 284 282 282 282 282 282 281 281 281 280 280 280 280 282 282 282 282 282 282
287 285 285 286 286 285 285 285 286 286 286 285 284 284 284 284 284 284 284 283 282 282 282 281 281 281 281 282 281 281 281 280 280 282 282 282 283 282
288 286 285 284 284 284 284 284 284 285 285 285 285 285 284 284 285 284 284 283 282 282 282 281 281 281 281 281 281 281 281 280 280 282 282 282 282 282
289 288 288 287 286 285 284 284 284 284 284 283 283 285 284 284 284 284 284 283 283 283 283 282 281 281 279 279 281 281 281 281 281 281 282 282 281 281
288 288 288 288 287 286 285 284 284 284 283 283 283 283 284 284 283 283 283 283 283 283 283 282 282 281 280 279 280 281 281 280 280 280 280 280 280 280
287 288 288 288 287 287 286 285 285 284 284 284 283 283 283 283 282 282 283 283 283 282 282 282 282 282 281 280 279 279 280 281 280 280 280 279 279 279
286 286 286 286 286 286 286 285 285 285 284 284 284 284 283 282 282 282 282 282 282 282 282 282 282 282 281 281 280 280 280 280 280 280 280 280 279 279
289 288 287 287 287 286 286 285 285 285 285 285 285 285 284 283 283 282 282 282 281 281 281 281 281 281 281 281 280 280 279 279 280 279 279 280 280 280

GFSNE_925_thetae_099.txt.gz
Theta_e
314 315 315 314 316 316 317 319 320 319 312 305 305 306 305 305 304 303 303 302 303 303 303 304 305 307 308 308 311 316 319 319 317 316 314 314 312 310
312 314 313 312 312 313 315 316 317 317 316 306 303 304 303 303 302 301 301 301 301 302 301 302 302 303 305 307 308 308 310 310 310 310 310 309 308 306
309 310 309 310 311 311 312 312 313 313 310 301 301 301 300 300 299 299 300 300 300 300 300 300 300 301 301 302 304 306 307 307 307 306 305 305 304 304
306 307 308 307 308 308 309 309 309 310 308 301 299 298 299 298 298 298 298 298 298 298 298 299 299 299 299 299 300 300 301 302 302 302 302 302 302 302
304 304 305 305 305 305 305 305 305 306 306 304 299 298 297 297 296 296 295 294 295 294 294 294 296 296 297 297 296 296 297 298 299 299 300 300 300 299
301 302 302 302 302 302 301 302 303 303 303 303 299 298 297 296 295 295 291 291 291 290 290 290 290 291 293 294 294 294 295 295 295 295 296 296 297 297
300 300 300 300 300 300 300 300 300 300 301 301 298 296 295 295 294 293 292 290 289 289 288 288 287 287 287 287 287 288 291 292 293 293 292 290 289 289
298 298 298 298 298 298 298 298 298 299 299 300 299 297 295 295 294 293 291 288 288 288 287 287 286 286 286 286 286 286 286 286 286 287 287 287 287 290
297 296 296 295 296 295 295 295 295 297 298 299 299 297 296 295 293 291 290 289 288 286 286 285 286 286 286 286 286 287 286 286 287 288 289 289 290 290
295 295 294 294 293 293 293 292 292 293 295 297 297 296 295 293 291 291 290 288 286 286 285 286 286 286 286 286 287 288 288 286 287 288 289 289 289 289
294 293 293 292 290 288 288 287 287 287 288 289 291 291 290 289 289 288 287 286 285 285 285 286 286 286 286 286 286 288 288 288 288 288 288 288 288 288
292 291 290 289 287 289 288 287 287 288 288 288 288 287 287 286 286 286 286 286 286 285 286 286 285 285 285 285 285 286 286 286 287 287 287 287 287 287
290 289 289 289 288 288 289 287 287 286 287 286 287 287 287 286 286 286 286 286 287 286 286 286 284 284 284 284 285 285 285 285 285 286 286 285 286 286
286 286 286 287 290 289 287 286 286 286 285 284 284 284 286 285 285 285 285 285 285 285 285 285 285 284 283 282 283 283 284 284 284 284 284 284 284 285
286 285 285 286 287 288 288 286 287 287 285 285 284 285 285 285 285 285 285 285 284 283 283 284 283 283 282 282 282 282 283 283 283 283 283 283 283 282
289 286 285 285 286 287 287 287 288 288 286 285 285 285 284 285 285 285 285 284 283 283 282 282 282 282 281 281 281 281 281 281 282 282 282 282 283 282
289 287 285 286 286 287 286 285 286 287 287 286 285 284 284 284 284 284 284 284 283 282 282 282 282 282 282 281 281 281 282 281 281 281 281 281 283 283
289 287 286 285 285 286 286 285 285 285 286 286 286 285 284 284 284 284 284 284 283 283 282 282 281 281 281 281 281 281 281 281 280 281 281 281 282 283
289 288 288 287 286 285 284 284 284 284 284 284 285 285 285 285 284 284 284 284 283 283 283 283 282 281 279 279 281 281 281 281 281 280 281 282 282 281
289 288 288 288 287 287 287 286 285 284 284 283 283 283 283 284 284 283 283 283 283 283 283 283 282 282 280 279 281 281 281 281 280 281 281 281 281 281
288 288 288 288 288 288 288 287 287 286 285 284 283 283 283 283 283 283 283 283 283 282 282 282 283 283 282 281 279 280 281 281 281 280 280 280 280 280
288 287 287 286 286 286 286 286 286 285 285 285 284 284 284 283 282 282 282 282 283 283 283 282 282 282 281 281 280 280 280 281 281 280 280 280 280 279
291 291 290 289 288 287 287 286 286 286 285 285 284 284 284 283 283 283 282 282 282 282 282 282 282 282 281 281 281 280 280 280 280 280 280 280 280 280

GFSNE_925_thetae_102.txt.gz
Theta_e
310 311 313 314 314 314 316 316 317 317 313 308 309 308 307 306 306 305 304 303 303 303 303 303 304 307 308 309 312 318 318 318 320 318 317 316 315 313
308 310 312 312 311 311 312 313 314 314 315 309 306 306 304 305 303 302 302 302 302 301 302 302 302 303 305 307 309 311 314 315 316 315 314 313 312 310
306 308 309 309 309 309 310 311 312 312 310 304 304 303 302 302 301 300 300 300 300 301 300 300 300 300 301 303 306 307 307 308 309 309 309 309 307 306
304 305 306 307 307 307 308 308 309 309 308 304 301 300 300 300 299 298 298 299 299 298 298 299 299 299 298 300 301 302 303 305 305 305 305 305 305 305
302 303 303 304 304 304 304 304 304 304 306 305 300 299 298 298 297 296 296 296 296 296 295 297 297 297 296 296 297 298 299 300 301 302 302 302 302 302
300 301 301 301 301 301 302 301 301 302 303 303 300 298 298 296 296 295 293 293 293 292 291 291 293 294 294 294 294 295 295 296 297 298 298 299 299 299
299 299 299 300 300 300 299 299 299 300 300 300 299 297 296 295 295 294 292 291 290 290 290 289 288 289 288 288 288 290 293 294 294 294 294 294 295 295
298 298 298 298 298 298 298 297 298 298 298 299 299 297 296 296 295 294 292 289 289 289 287 287 287 286 286 286 286 286 286 287 289 290 289 288 287 288
297 297 296 296 296 296 296 295 295 296 297 297 298 299 299 298 297 294 292 290 289 287 287 286 286 286 286 286 287 287 286 286 286 287 287 288 291 290
296 295 295 295 294 293 293 293 293 293 294 296 297 297 297 296 295 295 293 290 288 287 286 285 285 286 286 286 287 289 286 287 287 290 289 289 290 290
294 294 294 293 292 291 289 288 288 288 289 289 292 294 294 292 291 291 289 288 285 285 285 286 286 286 286 286 287 288 288 288 288 289 288 288 288 289
293 292 292 291 289 289 289 287 287 287 288 288 288 288 288 288 288 288 288 287 286 285 285 286 285 286 285 285 286 287 287 287 287 287 287 287 287 287
292 291 290 289 290 289 289 289 287 287 287 287 288 288 287 287 286 285 286 286 286 287 286 286 285 284 284 285 285 285 286 286 286 286 286 286 286 286
287 286 286 286 287 290 288 288 286 287 286 285 285 285 286 286 286 286 286 286 286 287 286 286 285 285 284 283 284 284 285 285 285 285 285 285 285 285
289 287 285 285 286 289 289 288 287 287 286 284 284 284 285 285 285 285 285 284 284 284 284 284 285 284 284 283 283 282 283 283 284 284 284 284 284 284
291 290 287 285 285 286 288 288 287 288 287 286 285 284 284 285 285 285 285 285 284 284 283 283 283 282 282 282 282 282 282 283 282 283 282 282 283 283
291 290 288 286 286 286 286 286 286 287 287 287 286 285 284 284 284 284 284 284 284 283 283 282 282 282 282 282 281 282 282 282 282 282 281 282 283 284
289 289 288 287 285 285 286 286 286 285 286 286 286 286 284 284 284 284 284 284 284 284 283 282 282 281 281 281 281 282 282 282 282 281 280 280 282 283
289 289 288 288 287 286 285 285 285 285 284 284 285 286 285 285 284 284 284 284 284 284 284 283 282 281 280 280 282 281 281 282 281 281 280 280 281 283
289 289 289 289 288 288 287 287 287 287 286 284 284 284 284 284 284 284 283 283 283 283 283 283 282 282 281 281 281 281 281 281 281 281 281 281 281 281
289 288 288 288 288 288 287 287 287 287 287 286 285 284 283 283 283 283 283 283 283 282 282 282 283 283 283 282 280 280 281 281 281 281 281 281 280 280
291 290 289 288 287 287 287 286 286 286 286 286 285 285 284 283 283 282 282 282 283 283 283 283 282 282 281 281 281 281 281 281 281 281 281 281 280 280
291 291 291 290 290 290 289 288 287 286 286 286 286 285 284 283 283 282 282 282 282 282 283 283 282 282 281 280 281 281 280 281 281 281 281 280 281 281

GFSNE_925_thetae_105.txt.gz
Theta_e
310 310 312 313 313 313 314 315 314 315 316 310 311 311 309 308 307 306 305 304 304 303 303 303 303 305 308 310 311 317 317 318 319 318 320 318 317 317
307 308 310 311 311 311 311 312 313 312 313 311 308 309 307 306 305 304 304 303 302 302 302 302 302 302 305 308 310 315 318 319 319 319 318 317 315 314
306 306 307 308 309 309 309 310 310 311 311 307 307 306 304 303 302 302 301 301 301 301 301 300 300 300 301 304 308 309 311 313 317 316 314 312 312 310
305 305 305 305 306 307 307 307 307 308 308 306 303 303 301 300 300 299 299 300 300 299 300 300 299 299 299 300 302 305 307 308 308 309 309 309 308 307
303 303 303 303 304 304 304 303 303 303 304 305 301 300 299 298 298 297 296 297 297 297 298 298 298 298 297 297 299 300 302 303 305 305 305 305 306 306
301 301 301 301 301 300 301 301 301 300 301 302 301 299 298 297 297 296 294 294 294 294 294 294 296 295 295 295 296 297 298 300 301 302 303 303 303 302
299 299 299 299 299 299 299 299 299 299 299 300 299 297 296 295 295 296 294 292 292 292 290 290 290 291 289 289 291 293 295 295 296 297 298 298 299 299
298 298 298 298 298 298 298 298 298 298 298 298 299 298 298 297 296 295 293 289 291 290 289 288 287 287 287 287 287 287 289 292 293 293 293 292 292 293
297 297 297 296 296 296 296 296 296 296 297 297 298 298 298 298 298 295 293 291 290 289 288 287 286 286 286 287 287 286 286 286 287 288 288 288 289 291
296 296 296 295 295 294 294 293 293 292 293 295 296 297 298 298 297 297 295 292 290 288 286 287 286 285 286 286 287 288 286 287 288 289 289 290 291 290
294 294 294 294 293 292 291 289 288 289 289 290 292 294 295 295 295 294 292 290 287 286 286 286 285 285 286 286 287 288 288 289 290 290 289 289 289 289
293 293 293 293 291 289 290 289 287 287 288 288 289 290 290 289 290 290 291 289 287 286 286 285 285 286 286 286 287 288 288 288 288 288 288 288 288 288
293 293 292 291 290 289 290 289 288 287 287 288 288 287 287 287 287 287 287 287 287 286 286 286 285 285 285 285 285 287 287 287 287 287 287 287 287 287
291 289 287 287 287 290 290 289 287 287 286 286 286 287 287 286 286 285 285 285 286 286 286 286 286 285 285 284 285 285 285 285 285 286 286 286 286 286
292 289 287 285 286 288 290 289 288 287 286 285 284 284 285 286 285 285 285 285 285 285 285 286 286 285 285 284 284 283 284 285 285 285 285 285 285 285
292 291 290 287 285 286 287 288 288 287 287 287 285 284 284 284 285 284 284 284 284 284 284 284 284 284 284 284 283 283 283 284 283 283 283 284 284 284
291 291 289 288 286 286 286 287 287 287 287 287 286 285 284 284 284 284 284 284 284 284 283 283 283 282 282 282 282 283 283 282 283 283 282 283 283 284
290 289 289 288 287 286 285 286 286 286 286 286 286 286 285 284 284 284 284 284 284 284 284 283 282 282 281 282 282 283 282 282 282 282 282 281 282 283
290 289 289 288 288 287 286 285 285 285 285 285 285 285 286 285 284 284 283 283 283 284 284 284 282 282 282 284 282 282 282 282 282 281 281 280 281 283
291 290 289 289 288 288 288 287 287 287 286 285 285 284 284 285 285 284 284 283 283 283 283 283 282 282 282 283 283 282 282 282 282 282 281 280 281 282
291 290 289 289 288 288 288 287 287 287 287 287 286 285 284 284 283 283 284 283 283 283 282 283 284 284 283 282 281 282 282 283 282 282 282 281 281 281
293 292 292 291 290 289 289 288 287 287 286 286 286 286 285 285 284 283 283 283 283 284 283 283 283 283 282 281 282 283 282 282 282 282 282 282 281 282
291 291 291 290 290 290 289 289 288 288 288 287 286 286 285 284 284 284 283 282 282 283 283 283 282 282 282 281 281 282 282 281 281 281 282 282 281 281

GFSNE_925_thetae_108.txt.gz
Theta_e
314 316 316 316 316 316 316 316 316 317 317 316 315 308 307 307 309 308 306 305 305 305 303 303 303 304 306 308 309 314 317 318 318 319 319 321 321 318
310 311 313 313 314 314 314 314 314 313 314 314 311 307 306 306 307 306 305 304 303 303 302 302 302 302 303 306 308 314 318 318 318 318 319 320 318 318
308 310 311 311 311 311 311 311 312 311 311 309 309 308 306 304 304 303 302 302 302 302 301 301 301 301 301 303 306 309 315 319 318 318 320 318 315 315
307 307 308 306 308 308 309 309 309 309 309 309 306 305 303 302 301 301 300 300 300 300 300 300 300 299 299 300 302 306 308 312 314 315 314 313 314 311
304 304 304 305 306 306 306 306 306 305 305 305 303 302 301 300 298 298 298 298 298 298 299 299 298 298 298 298 299 302 305 307 309 309 309 309 308 308
302 302 302 303 304 303 303 303 303 302 302 302 302 300 299 298 297 297 295 296 296 296 296 296 297 297 296 295 297 299 301 303 305 306 306 306 306 306
300 300 299 300 300 300 300 302 301 300 300 300 300 298 297 296 296 296 295 294 293 294 292 291 292 291 291 292 294 295 296 298 300 301 302 303 303 303
300 299 298 299 298 298 299 298 298 299 299 298 299 298 298 298 297 296 295 291 291 292 291 291 289 288 288 288 287 289 293 295 295 296 297 298 298 298
298 298 297 297 297 297 297 296 296 296 297 297 297 298 298 299 298 296 294 293 293 291 290 291 287 287 287 287 287 286 286 288 290 292 292 291 292 294
297 297 296 295 296 295 294 293 293 293 293 294 296 296 297 297 297 296 296 293 291 289 288 290 287 287 286 287 287 288 287 287 289 289 289 290 291 291
295 295 295 295 294 294 292 290 289 289 290 291 292 294 295 296 294 293 293 291 292 290 288 288 287 287 287 287 287 289 288 289 290 290 290 291 291 290
293 294 294 293 293 292 292 290 289 288 288 289 289 290 291 292 292 292 293 293 292 289 287 288 286 286 288 286 287 288 290 289 290 290 289 289 289 290
293 292 293 292 292 290 290 290 289 288 288 289 289 289 289 288 288 289 289 290 290 289 287 286 286 286 287 286 286 287 288 288 288 288 288 288 288 289
292 291 291 291 290 289 290 290 288 287 288 288 288 288 288 287 286 286 286 287 287 286 286 285 286 286 287 287 287 285 287 287 287 287 287 287 287 287
294 291 287 286 286 287 290 290 289 288 287 287 287 287 287 286 285 285 286 286 286 286 286 286 286 286 285 287 287 285 285 285 286 286 286 286 286 286
294 292 291 289 287 287 288 290 289 288 288 288 287 286 285 285 285 285 285 284 285 284 285 285 285 285 285 284 285 285 285 285 284 285 285 285 285 285
293 292 290 289 288 287 288 288 288 288 288 287 287 286 285 285 285 284 284 284 286 286 285 284 284 283 283 283 284 284 285 284 284 284 283 284 284 284
291 290 289 289 289 288 287 287 287 287 287 287 287 287 286 285 285 284 284 284 286 286 285 284 283 283 283 283 283 284 284 284 284 283 283 283 284 284
291 290 289 290 289 288 288 287 287 287 286 286 286 286 286 286 285 285 284 285 285 286 286 284 284 284 285 287 285 283 283 284 283 283 283 283 284 284
292 291 290 290 289 288 288 287 287 287 286 285 285 285 285 285 285 285 285 285 285 285 285 284 283 284 285 286 286 284 283 283 283 284 284 283 283 283
292 291 291 290 289 289 288 288 288 287 287 286 286 286 285 285 285 285 285 285 285 285 285 285 284 284 284 284 283 283 283 283 283 283 283 283 283 283
293 293 292 291 291 291 290 290 289 288 287 287 286 286 286 285 285 285 285 285 285 285 285 285 284 284 283 283 283 284 284 284 283 283 282 282 283 284
292 291 291 291 290 290 290 289 289 288 288 288 287 287 286 285 285 285 285 285 284 285 285 285 284 283 284 282 283 283 284 284 283 282 282 283 283 282

GFSNE_925_thetae_111.txt.gz
Theta_e
324 322 318 318 318 318 318 318 318 318 316 318 317 312 310 309 308 308 307 307 306 305 305 304 303 303 303 304 306 308 313 317 317 318 319 319 321 321
318 315 315 315 315 315 315 316 316 315 315 314 314 310 307 307 307 306 305 305 305 304 303 302 301 301 302 302 305 308 314 318 318 318 319 319 319 321
311 313 313 313 313 313 313 313 313 312 312 311 310 309 307 305 306 304 304 303 303 303 302 301 301 300 300 301 302 307 311 318 317 318 318 319 321 318
309 310 311 310 310 311 311 311 311 309 309 309 308 306 306 303 303 302 302 301 301 301 301 301 300 299 299 299 301 305 308 313 318 318 320 319 317 315
307 307 307 307 308 308 308 308 308 307 305 305 305 304 303 302 301 300 299 300 300 300 300 300 299 299 298 297 299 303 306 308 310 314 313 313 312 312
305 305 305 305 305 306 305 305 305 304 303 303 303 302 301 299 299 299 297 298 298 298 298 298 297 297 296 295 297 299 303 305 307 308 308 309 308 308
302 302 302 302 302 302 302 303 302 302 301 301 301 300 299 298 297 298 297 296 296 296 295 294 293 293 292 291 293 296 298 301 303 305 306 306 307 307
302 301 300 300 299 299 299 300 300 300 300 300 299 299 298 299 298 297 296 293 293 296 294 291 291 290 290 289 288 290 294 296 298 300 302 303 303 303
301 300 299 297 298 298 298 297 297 297 297 298 297 297 298 298 298 297 295 294 294 293 292 293 291 289 288 287 287 287 287 292 294 295 296 297 298 299
299 299 299 297 296 296 295 294 294 294 294 295 296 296 297 297 297 297 297 294 292 292 291 291 290 288 288 287 287 287 287 287 288 289 291 291 292 294
297 297 297 296 294 295 294 293 292 291 290 291 292 293 295 296 295 295 294 292 291 290 290 289 288 288 287 287 288 288 288 288 290 290 291 291 290 290
295 295 295 294 294 294 293 292 291 290 289 288 289 289 292 293 294 293 294 292 294 291 290 289 288 287 287 287 287 289 290 290 291 290 290 291 290 291
295 294 294 294 294 293 291 292 291 289 289 289 289 289 290 290 289 291 291 292 293 291 289 288 287 286 289 287 286 288 289 289 289 290 289 289 289 290
294 293 293 293 292 292 291 291 290 288 289 289 289 289 289 288 287 287 288 289 290 289 287 287 287 287 287 288 287 286 288 288 288 288 288 288 289 288
294 292 289 287 287 287 288 291 289 289 288 288 288 288 288 288 286 285 285 285 286 286 286 286 286 286 287 288 288 286 286 287 287 287 287 287 287 287
294 293 290 289 288 288 289 291 290 289 289 288 288 287 287 285 285 285 285 285 286 285 286 286 285 286 285 285 286 286 286 286 286 286 286 286 286 286
294 293 291 290 289 288 288 288 290 289 289 288 288 287 286 285 285 285 285 285 286 287 285 284 285 285 285 285 285 285 286 285 285 285 285 285 285 285
293 292 291 290 290 289 288 288 288 288 288 288 288 287 287 286 286 285 285 285 286 287 286 286 284 283 283 284 284 284 285 285 285 284 284 284 284 285
292 291 290 290 290 290 289 288 288 288 287 287 287 287 287 287 286 286 285 285 285 286 286 286 285 284 286 284 286 284 284 285 284 284 284 283 284 285
292 292 291 290 290 290 289 288 288 287 287 286 286 286 286 286 286 286 286 285 285 286 286 286 285 284 285 286 287 286 284 284 284 284 284 284 284 284
293 292 292 292 291 290 289 289 288 288 287 287 286 286 286 286 285 286 286 286 286 286 286 286 285 285 285 285 284 284 284 284 283 284 284 284 283 283
293 293 292 292 291 291 290 290 289 289 288 287 287 287 286 286 286 286 286 286 286 286 286 286 286 285 285 284 284 284 284 284 284 283 283 283 284 283
293 292 292 291 291 290 290 289 289 289 288 287 287 287 287 287 286 286 286 286 286 286 286 286 286 285 285 284 283 283 284 284 284 284 284 283 283 283

GFSNE_925_thetae_114.txt.gz
Theta_e
330 327 325 324 321 318 318 318 317 315 312 316 314 312 312 310 309 309 308 308 307 306 306 305 303 303 302 302 303 305 309 311 315 317 316 316 317 320
326 326 323 318 317 316 316 316 316 315 311 313 312 312 310 308 307 307 307 306 306 305 304 303 302 302 301 300 301 304 309 312 317 318 319 316 318 320
322 318 316 314 314 314 314 314 314 314 312 311 311 309 308 307 305 305 305 305 304 304 303 302 301 301 299 299 300 303 309 313 318 317 317 318 318 319
313 312 313 313 312 312 312 312 311 311 310 309 308 307 306 303 303 303 303 302 302 302 302 301 301 300 298 298 299 303 308 309 317 317 318 318 318 319
310 309 310 310 308 309 309 309 309 308 307 306 305 304 303 303 302 301 301 301 301 301 301 301 300 299 297 297 298 302 306 308 312 317 317 318 316 313
308 307 307 307 306 307 307 307 306 305 304 304 303 302 302 301 300 299 299 299 299 299 299 299 298 297 295 294 296 299 304 306 308 310 312 312 312 311
305 305 305 305 304 305 304 303 303 303 302 301 301 301 300 299 299 299 298 297 297 298 298 297 295 294 293 292 292 296 300 304 306 307 308 309 310 310
304 303 302 302 301 301 301 300 301 301 300 300 299 299 298 298 299 298 297 295 295 297 295 295 292 292 291 290 288 290 295 298 301 304 305 306 307 307
302 301 300 300 299 299 299 299 298 298 298 298 297 296 297 298 298 298 297 295 295 295 293 292 291 291 290 289 287 287 288 294 296 298 300 302 303 303
300 300 299 298 298 297 297 296 296 295 295 295 295 296 296 296 297 297 297 296 294 294 292 292 291 290 289 288 287 288 287 287 291 294 294 297 299 299
299 298 298 298 297 296 295 295 294 293 292 291 291 292 293 295 296 296 295 293 292 292 291 290 290 288 288 287 287 288 288 289 289 289 292 292 293 294
297 297 297 296 296 295 295 294 292 292 290 290 289 289 290 293 294 294 293 293 294 292 292 289 289 287 286 287 287 288 289 290 291 290 292 290 291 290
296 296 296 295 294 294 294 293 292 291 289 288 289 289 290 290 291 292 292 293 293 294 291 290 288 287 288 287 286 288 289 289 290 290 290 290 290 291
296 295 294 294 294 293 293 292 291 291 288 289 289 289 289 289 288 288 289 290 291 292 290 287 287 287 287 287 286 286 289 289 289 289 289 289 289 290
295 294 293 292 292 291 291 291 291 289 288 288 288 288 289 288 288 286 286 286 287 287 287 287 286 287 287 287 288 287 286 287 288 288 288 288 288 289
295 294 293 289 287 286 287 288 291 290 289 288 287 287 287 287 286 285 285 285 285 285 286 286 286 285 286 286 288 287 286 287 286 287 287 287 287 287
295 294 293 291 290 289 288 288 288 290 289 289 288 288 287 286 285 285 285 285 285 286 285 285 285 285 285 286 286 286 286 286 286 286 285 286 286 286
295 294 293 292 291 290 289 288 288 289 289 289 288 288 287 286 285 285 285 285 285 285 287 286 285 284 284 285 285 285 285 285 285 285 285 285 285 286
295 294 293 293 292 291 290 289 288 288 288 288 287 288 287 287 286 286 285 285 285 285 286 287 286 284 284 283 286 286 284 284 285 285 285 284 284 285
294 293 292 292 291 291 290 290 289 288 288 288 287 287 287 287 287 286 286 286 285 285 285 286 286 286 284 284 286 286 286 285 284 284 284 284 284 284
293 293 292 292 292 291 290 290 289 288 288 287 287 286 286 286 286 286 285 286 286 286 285 285 285 285 285 284 284 285 285 285 284 284 284 284 284 284
293 293 293 293 292 292 291 290 290 289 288 288 288 287 287 286 286 286 286 286 286 286 286 286 286 285 286 285 284 284 284 284 284 284 284 283 284 283
294 293 293 292 292 291 291 290 290 290 289 289 288 287 287 287 287 287 286 286 286 286 286 286 286 286 286 285 284 284 283 284 284 284 284 284 283 283

GFSNE_925_thetae_117.txt.gz
Theta_e
329 329 330 327 326 324 322 319 316 312 311 315 314 312 312 311 309 308 307 307 307 307 306 305 305 304 302 301 301 302 303 307 309 312 315 317 317 315
329 329 326 325 324 321 317 317 317 316 312 313 312 311 310 309 308 306 306 306 306 307 305 304 303 303 301 301 300 300 303 308 309 315 316 318 317 316
327 327 325 322 318 316 315 314 315 315 312 310 310 309 308 307 307 305 304 305 305 305 304 303 302 302 301 299 298 301 306 309 311 317 317 317 317 317
324 322 317 315 314 313 313 313 313 312 312 309 308 307 306 305 304 303 302 302 302 302 303 302 302 301 300 297 298 301 306 308 311 316 318 317 317 316
318 315 313 313 312 311 311 311 310 310 309 308 306 305 303 303 302 301 301 301 301 301 301 301 301 300 298 296 296 299 305 308 309 316 317 318 318 318
311 310 310 310 309 308 308 308 308 307 306 305 304 303 302 301 301 300 299 299 300 300 300 300 299 298 296 295 294 297 302 306 308 311 316 315 314 312
308 308 307 307 306 306 306 306 305 304 303 302 301 301 300 299 298 299 299 299 299 298 298 298 297 295 295 294 292 292 299 304 306 308 311 312 313 313
306 305 305 304 304 304 303 303 302 302 301 301 300 299 298 297 297 298 297 296 296 298 296 296 295 293 293 293 291 288 294 299 303 306 308 309 311 310
305 304 302 302 301 301 300 300 300 300 299 299 299 298 296 296 298 298 297 296 296 296 295 294 293 292 291 291 290 288 287 294 297 301 303 305 307 308
303 302 302 300 300 299 299 298 297 297 297 296 296 296 296 296 296 296 297 296 295 295 293 292 292 291 291 289 288 288 287 287 293 294 297 300 302 304
301 301 300 299 298 298 297 297 296 295 294 293 292 292 293 293 294 295 295 294 293 294 293 291 291 290 290 288 287 288 288 287 288 291 293 295 297 299
299 299 298 298 297 297 296 295 294 294 292 291 289 289 290 292 294 294 294 294 293 292 292 290 290 290 287 287 287 288 288 290 290 290 291 292 292 293
298 297 297 297 296 296 295 295 294 293 291 289 289 289 289 290 292 293 293 293 293 293 292 290 289 288 287 288 286 288 289 290 291 291 291 291 290 290
297 296 296 295 295 295 294 293 292 291 290 289 289 289 289 289 288 288 289 290 291 291 292 291 288 287 287 287 287 286 288 289 289 290 289 290 290 290
297 296 295 294 294 293 293 293 292 291 288 288 288 288 288 289 288 288 286 286 287 288 291 290 287 287 287 287 288 288 286 288 288 289 288 289 289 290
295 294 293 292 290 290 290 290 292 291 289 288 288 287 287 287 287 286 285 285 285 285 286 286 286 286 286 286 287 288 287 287 287 287 288 287 288 288
295 294 292 290 288 288 287 288 289 290 289 289 288 288 288 287 286 285 285 285 285 285 286 285 285 285 285 285 286 286 286 286 286 286 286 287 287 287
295 293 292 292 292 291 290 289 287 287 289 290 289 288 288 287 287 285 285 285 285 285 285 286 286 284 285 286 285 285 285 285 285 285 285 285 285 286
295 294 293 293 293 293 292 290 289 288 288 288 288 288 288 287 287 286 285 285 285 285 285 286 286 285 283 284 285 286 285 284 284 285 285 285 285 285
294 294 294 294 294 293 292 291 290 289 288 287 287 287 287 287 287 287 286 286 286 285 285 285 286 286 285 284 285 286 286 286 285 284 284 285 285 284
295 294 294 294 293 292 292 291 290 290 289 288 287 287 287 287 287 287 286 286 286 285 285 285 285 285 285 285 284 284 285 285 285 285 284 284 284 284
293 294 293 293 294 293 292 291 290 290 289 288 288 287 287 286 286 286 286 286 286 286 286 286 286 286 285 284 284 284 285 284 284 284 284 284 284 284
293 293 294 293 293 293 292 292 291 291 290 290 289 289 288 287 287 287 287 286 286 286 286 286 286 285 285 285 285 284 284 285 285 284 284 284 284 284

GFSNE_925_thetae_120.txt.gz
Theta_e
328 327 327 328 328 328 324 324 319 315 314 314 314 313 313 312 311 309 308 307 307 306 307 307 306 305 303 303 302 302 302 305 306 309 311 314 318 316
329 328 328 328 327 323 324 321 319 314 311 313 313 312 310 309 308 307 306 306 306 306 305 305 304 303 302 302 301 301 300 305 307 307 312 317 317 318
327 327 328 327 324 323 321 318 317 316 312 310 311 310 309 308 306 305 304 304 304 304 304 303 303 302 302 301 300 298 300 306 308 310 315 317 317 317
325 326 327 325 322 319 316 315 314 314 314 310 309 308 307 306 304 304 303 302 302 301 302 302 301 301 301 300 297 297 300 306 308 312 316 318 316 316
325 325 324 321 316 314 313 313 312 312 311 310 307 306 305 303 302 302 301 301 301 301 301 301 301 301 300 299 296 296 299 305 308 309 317 318 316 316
322 323 320 317 314 312 311 311 310 309 308 307 305 304 303 301 301 300 299 299 300 300 300 300 300 299 298 297 295 293 296 304 307 309 313 313 315 317
315 313 313 312 311 309 309 308 307 307 305 304 302 301 300 299 299 298 298 299 299 299 299 299 298 298 296 295 294 292 291 302 305 308 311 313 311 311
310 309 308 307 307 306 306 306 305 304 303 302 301 300 299 298 297 296 297 297 297 298 297 297 297 296 294 293 293 292 288 297 303 306 307 311 312 311
308 307 305 304 304 304 303 303 302 301 301 301 300 299 298 298 296 297 297 296 296 297 296 295 294 293 292 292 291 290 288 290 299 303 305 307 308 310
305 304 304 302 302 301 300 300 299 299 298 298 298 298 297 296 297 297 296 296 296 296 294 293 293 292 292 292 290 288 287 287 293 296 301 304 305 307
303 302 302 301 300 299 299 298 297 296 296 295 295 295 294 294 294 295 295 294 294 294 294 292 291 291 291 291 289 287 287 288 289 293 295 299 301 304
302 301 300 300 299 298 298 297 296 296 294 293 291 290 290 291 293 293 294 294 294 293 293 292 290 291 288 286 287 287 288 289 290 292 292 293 295 298
300 300 299 299 298 297 297 297 296 295 293 291 290 290 290 290 291 293 293 292 293 293 292 291 290 289 289 287 287 287 288 289 290 290 291 291 291 292
300 299 298 297 297 296 296 295 294 293 291 290 289 289 289 289 289 289 290 291 292 292 292 292 290 287 287 287 287 286 288 289 289 289 289 289 289 290
299 298 297 296 295 295 295 294 293 292 291 289 288 288 288 289 288 288 287 287 288 289 290 290 290 288 287 286 287 287 287 287 289 289 289 289 289 289
297 296 295 295 294 294 294 293 292 292 290 288 288 288 287 288 288 287 286 285 285 285 286 287 287 286 286 286 286 287 287 286 286 287 288 288 288 288
296 295 293 293 292 292 291 291 291 291 290 289 288 288 287 287 287 286 285 285 285 285 285 285 285 285 285 285 285 286 286 286 286 286 286 286 287 287
295 292 291 291 289 288 287 287 288 289 290 289 289 288 288 287 287 285 285 285 285 285 285 286 286 285 285 285 285 285 285 285 285 285 286 286 286 286
295 293 292 291 290 291 290 290 289 288 288 289 289 289 288 287 287 286 285 285 285 285 284 285 286 286 281 281 285 285 285 285 284 284 284 285 285 285
295 294 293 293 293 293 293 292 291 290 288 288 288 288 288 287 287 287 286 286 285 285 285 284 285 286 285 284 285 286 285 285 285 285 285 285 284 284
295 293 294 294 295 294 293 292 292 290 290 288 287 287 287 287 287 287 287 286 286 285 285 285 285 285 285 285 284 285 285 285 285 284 285 284 284 284
295 294 294 295 292 292 292 292 291 290 289 288 288 287 287 287 287 286 286 286 286 286 286 286 286 286 285 284 284 283 284 285 285 285 284 284 284 284
294 294 293 292 292 292 292 291 290 290 290 289 289 288 287 287 287 286 286 286 286 286 286 286 286 285 285 285 284 284 284 285 285 285 286 286 285 285